[{"header": {"dx": 0.06612293990616946, "dy": 0.0552356325346848, "nx": 98, "ny": 59, "la1": 35.046912555036876, "la2": 31.78801023549047, "lo1": -121.43107172385933, "lo2": -114.95102361305473, "refTime": "2026041016", "parameterCategory": 1, "parameterNumber": 2}, "data": [1.84, 2.23, 2.51, 3.14, 3.6, 2.79, 0.59, -0.55, -1.73, -1.73, -1.08, -0.59, -0.98, -1.98, -0.99, -0.99, -0.0, -0.0, -0.0, 1.8, 1.55, 2.98, 2.95, 3.48, 3.93, 3.93, 4.0, 3.35, 2.53, 2.8, 1.79, 0.0, -1.13, -1.13, -0.99, 0.0, 0.0, 0.0, 0.0, 0.0, 1.34, 2.24, 4.02, 4.92, 6.26, 5.81, 6.64, 6.16, 6.18, 6.01, 6.18, 6.53, 7.27, 7.68, 8.38, 8.38, 9.04, 9.65, 9.65, 10.0, 9.6, 9.6, 9.36, 8.95, 9.36, 9.49, 9.9, 10.01, 10.95, 11.87, 11.61, 10.68, 10.45, 10.89, 10.6, 10.16, 10.28, 8.94, 8.45, 6.51, 5.51, 4.6, 3.48, 2.95, 2.2, 3.07, 4.54, 6.21, 7.76, 9.9, 10.63, 10.66, 10.66, 10.63, 10.55, 9.9, 9.24, 8.06, 1.84, 2.23, 2.51, 3.14, 3.6, 2.79, 0.59, -0.61, -1.88, -1.73, -1.08, -0.0, -0.87, -0.99, -1.4, -1.4, -0.0, -0.0, -0.0, 0.87, 1.7, 2.6, 3.0, 4.02, 3.35, 3.79, 3.58, 2.97, 2.0, 1.9, 2.21, 2.8, 2.24, 0.99, 0.0, 0.0, 0.0, 0.0, 0.0, 0.0, 2.24, 3.58, 4.02, 3.9, 5.29, 5.94, 5.58, 5.49, 5.69, 5.89, 6.64, 7.35, 8.03, 7.95, 7.95, 8.67, 9.05, 9.65, 10.0, 10.0, 9.6, 9.49, 9.36, 9.36, 9.36, 8.95, 9.36, 9.9, 10.43, 11.37, 11.66, 11.36, 10.6, 10.6, 10.7, 10.73, 10.73, 8.94, 8.45, 6.51, 5.51, 4.6, 3.48, 2.95, 2.2, 3.07, 4.54, 6.21, 7.76, 9.9, 10.63, 10.66, 10.66, 10.63, 10.55, 9.9, 9.24, 8.06, 1.84, 2.23, 2.23, 2.79, 3.07, 2.79, 1.13, -0.61, -1.73, -2.2, -1.76, -0.51, -0.0, -0.85, -1.2, -1.2, -0.99, -0.0, -0.0, 1.55, 2.0, 3.22, 2.8, 3.91, 4.14, 4.43, 3.48, 2.8, 1.79, -0.0, 0.98, 1.83, 2.76, 5.09, 2.97, 0.0, 0.0, -1.13, 0.0, 1.34, 1.0, 2.21, 3.58, 4.22, 4.6, 4.84, 5.15, 5.06, 6.11, 6.39, 7.06, 7.76, 8.06, 8.06, 7.92, 8.43, 9.03, 9.6, 10.0, 10.15, 10.0, 9.9, 9.49, 9.36, 8.95, 8.95, 8.95, 9.9, 10.43, 11.37, 11.66, 11.36, 10.7, 10.28, 10.28, 10.28, 10.73, 9.36, 7.45, 6.16, 4.54, 3.79, 3.22, 1.83, 0.81, 1.55, 2.98, 5.49, 7.81, 10.28, 11.66, 11.28, 10.29, 9.67, 10.0, 10.18, 9.54, 8.56, 1.84, 2.23, 2.23, 2.53, 2.79, 2.79, 1.6, -0.0, -1.73, -2.44, -1.58, -0.59, -0.0, -0.0, -0.99, -0.99, -1.13, -0.0, 0.87, 2.0, 2.0, 1.7, 3.22, 3.47, 4.58, 5.37, 3.63, 2.84, 1.2, -0.0, -0.0, 0.88, 1.72, 3.68, 4.11, 3.6, 3.13, 2.68, 1.34, -0.0, -0.0, 1.8, 3.48, 4.19, 4.54, 5.21, 4.81, 5.49, 5.77, 6.79, 6.7, 7.81, 8.05, 8.05, 8.43, 8.8, 9.36, 9.9, 9.9, 9.9, 9.9, 9.9, 8.63, 8.43, 8.43, 8.43, 9.03, 9.05, 10.4, 10.94, 12.04, 11.61, 10.25, 8.94, 9.26, 9.7, 9.7, 9.24, 7.63, 5.58, 3.72, 3.63, 2.76, 0.96, 0.0, 0.0, 2.6, 5.24, 8.31, 11.28, 11.64, 10.66, 9.0, 9.05, 9.36, 9.33, 10.41, 9.97, 1.84, 1.84, 2.23, 2.53, 2.79, 2.79, 1.84, -0.0, -1.19, -1.76, -1.8, -0.61, -0.0, -0.0, -0.0, -0.87, -0.87, -0.0, -0.0, 1.08, 1.41, 1.41, 1.41, 2.8, 2.99, 3.2, 3.2, 2.8, 1.84, 0.88, 0.96, 0.88, 1.83, 2.6, 3.91, 4.29, 4.74, 4.43, 1.13, -0.0, -0.0, 1.99, 3.63, 4.89, 5.21, 5.15, 5.06, 5.37, 6.11, 6.44, 7.2, 7.42, 7.42, 7.82, 8.4, 8.95, 9.24, 9.75, 9.9, 10.18, 9.75, 8.4, 7.44, 6.73, 7.35, 8.03, 8.03, 8.68, 9.67, 10.66, 12.23, 12.15, 10.6, 9.8, 8.45, 7.47, 7.89, 7.63, 5.6, 3.72, 2.47, 1.72, 1.84, 0.0, -0.89, 0.0, 2.82, 6.53, 9.17, 10.58, 10.28, 9.04, 8.38, 8.06, 7.82, 9.24, 10.68, 10.68, 1.84, 1.84, 2.23, 2.23, 2.79, 3.07, 2.23, 0.57, -0.55, -1.76, -1.27, -0.0, -0.0, -0.0, -0.0, -1.13, -1.13, -0.0, -0.0, -0.0, -0.0, -0.0, -0.0, 1.4, 1.4, 1.32, 2.82, 2.82, 2.66, 2.66, 2.76, 2.48, 2.23, 2.95, 3.22, 3.9, 5.06, 5.15, 2.0, -0.96, -0.0, 1.4, 3.55, 4.16, 4.58, 4.95, 5.24, 6.01, 6.44, 6.82, 6.8, 6.8, 7.2, 7.35, 8.3, 8.82, 9.06, 9.06, 9.97, 9.97, 8.3, 6.18, 4.95, 5.1, 6.53, 7.9, 8.31, 8.38, 9.04, 10.29, 11.28, 12.27, 12.47, 12.15, 10.6, 8.01, 6.21, 5.6, 3.93, 2.6, 0.89, 1.65, 0.89, 0.0, 0.0, 0.85, 4.07, 7.36, 8.85, 8.22, 7.97, 8.03, 7.35, 6.11, 6.82, 8.95, 11.37, 11.37, 1.84, 1.84, 2.23, 2.23, 2.53, 3.07, 2.53, 1.27, -0.0, -1.08, -1.11, -0.0, -0.0, -0.0, -0.0, -0.99, -0.99, -1.2, -0.0, -0.0, -0.0, -0.0, -0.0, 0.96, 1.32, 1.32, 1.32, 2.66, 2.66, 3.47, 4.02, 2.76, 2.53, 2.76, 3.22, 3.33, 4.58, 6.63, 2.8, -1.7, -1.32, -0.0, 1.49, 3.8, 4.96, 5.1, 5.76, 6.64, 6.39, 7.07, 6.7, 6.8, 7.35, 7.63, 8.33, 8.8, 8.9, 8.9, 9.35, 8.33, 5.21, 2.99, 3.55, 4.34, 5.9, 7.82, 8.93, 9.04, 9.05, 10.23, 11.2, 12.15, 12.54, 14.17, 13.72, 11.14, 6.51, 3.48, 2.95, 2.8, 1.75, 1.75, 1.75, 0.81, 0.82, 2.15, 5.0, 7.08, 7.59, 7.06, 6.01, 6.01, 5.77, 4.74, 6.18, 9.03, 11.09, 10.96, 1.84, 1.8, 2.23, 2.23, 2.53, 3.07, 2.53, 1.13, -0.0, -1.23, -1.11, -0.59, -0.0, -0.0, -0.0, -1.2, -1.0, -1.58, -0.0, 1.26, 1.9, 1.0, -0.0, -0.0, 0.88, 1.7, 1.7, 1.84, 3.47, 4.43, 3.0, 1.32, 1.4, 2.66, 3.47, 3.22, 4.11, 5.49, 4.29, -0.0, -1.52, -1.52, -0.0, 1.32, 2.82, 5.21, 5.76, 6.53, 6.64, 7.21, 6.44, 7.42, 7.76, 8.14, 8.33, 8.9, 8.94, 8.49, 7.15, 5.29, 2.23, 0.88, 1.73, 3.15, 5.64, 7.9, 10.29, 10.63, 10.43, 10.68, 11.36, 11.84, 13.31, 14.22, 14.66, 12.44, 9.39, 5.6, 3.63, 3.72, 3.0, 2.23, 2.23, 2.17, 2.21, 3.61, 5.18, 6.53, 6.79, 6.16, 4.84, 4.46, 3.35, 3.63, 5.69, 8.79, 10.63, 10.23, 1.84, 1.84, 2.23, 2.23, 2.53, 3.07, 3.07, 1.84, -0.0, -1.11, -1.58, -1.27, -0.0, -0.0, -0.0, -0.0, -0.0, -0.0, -0.0, -0.0, 2.53, -0.0, -0.0, -0.0, -0.0, -0.0, -0.0, 2.0, 3.79, 3.22, 1.84, -0.0, 1.52, 3.0, 3.63, 4.54, 4.84, 2.8, 1.52, -0.0, -1.41, -1.7, -0.0, 1.7, 3.0, 3.55, 5.21, 6.24, 7.18, 7.27, 7.47, 7.44, 8.05, 8.0, 8.56, 8.8, 8.01, 5.81, 3.13, 1.34, -0.0, 0.95, 1.65, 3.45, 5.76, 8.38, 10.87, 12.04, 11.8, 11.18, 11.62, 11.98, 13.32, 13.34, 13.39, 12.52, 10.28, 8.01, 6.21, 3.22, 0.96, 2.35, 3.0, 3.09, 2.99, 3.8, 5.21, 6.44, 5.86, 4.92, 3.58, 2.21, 0.88, 2.47, 6.01, 8.68, 10.28, 9.43, 1.84, 1.84, 2.23, 2.23, 2.53, 2.53, 3.07, 2.53, 0.59, -0.0, -1.8, -1.6, -1.61, -0.53, -0.0, -0.0, -0.0, -0.0, -0.0, -0.0, -0.0, -0.0, -0.0, -0.0, -0.0, -0.0, -0.0, 2.0, 3.16, 3.48, 1.55, -0.0, -0.0, 1.7, 4.11, 4.43, 2.98, -0.0, -0.0, -0.0, -0.98, -0.0, -0.0, 0.98, 1.99, 2.64, 4.16, 6.01, 6.95, 7.68, 7.35, 7.35, 7.02, 7.41, 7.44, 7.42, 6.21, 2.24, -1.2, -1.34, -0.0, 1.67, 2.39, 4.0, 5.76, 8.42, 11.2, 12.22, 11.89, 11.59, 11.18, 10.79, 11.72, 12.22, 11.71, 10.18, 8.9, 7.55, 6.07, 3.48, 0.0, 0.0, 2.53, 3.35, 3.79, 4.11, 5.05, 5.59, 4.92, 3.95, 2.68, 1.2, 0.96, 2.67, 5.76, 8.65, 9.67, 7.76, 1.84, 1.84, 2.23, 2.23, 2.23, 2.53, 2.79, 2.53, 1.33, -0.0, -1.13, -1.84, -1.61, -1.2, -0.99, -0.0, -0.0, -0.0, -0.0, -0.0, 1.4, -0.0, -0.0, -0.0, -0.0, -0.0, -0.0, -0.0, 1.8, 1.8, -0.0, -0.0, -0.0, -0.0, 1.98, 3.79, 1.7, -0.0, -0.98, -0.0, -0.0, -0.0, -0.0, -0.0, 1.52, 2.64, 3.33, 5.06, 6.11, 6.01, 5.64, 5.76, 5.76, 5.76, 5.06, 5.64, 5.21, 2.23, 0.0, -0.0, -0.0, 1.63, 3.25, 4.71, 6.42, 7.97, 10.04, 10.63, 9.9, 8.9, 8.0, 7.28, 8.32, 8.88, 8.67, 7.28, 5.31, 4.47, 3.58, 2.24, -0.85, -1.6, 0.0, 1.98, 3.2, 3.95, 4.85, 4.85, 4.47, 4.02, 2.97, 2.23, 1.72, 2.54, 6.04, 8.31, 8.38, 6.18, 1.61, 1.84, 2.23, 2.23, 2.23, 2.53, 2.79, 2.79, 1.61, 0.59, -0.59, -0.99, -1.16, -1.2, -1.24, -1.24, -0.57, -0.57, -0.0, 0.57, 1.24, 1.24, 1.2, 1.8, -0.0, -0.0, -0.0, -0.0, -0.0, -0.0, -0.0, -0.0, -0.0, -0.0, -0.0, -0.0, -0.0, -0.0, -0.0, -0.0, -0.0, -0.0, -0.0, -0.0, -0.0, 0.83, 1.32, 2.54, 2.69, 2.46, 3.36, 3.29, 3.32, 3.23, 3.32, 3.91, 5.6, 6.53, 3.9, -0.0, 0.83, 2.37, 3.29, 4.13, 4.68, 5.6, 6.31, 6.43, 6.45, 5.9, 4.56, 3.13, 2.29, 3.33, 4.54, 2.97, 1.79, -0.0, -0.0, -0.8, -2.4, -1.98, -1.13, 0.99, 2.21, 3.6, 4.66, 5.09, 4.66, 4.57, 3.22, 3.58, 2.98, 3.4, 6.53, 8.38, 7.44, 4.98, 1.16, 1.84, 2.23, 2.23, 2.23, 2.53, 2.53, 3.07, 2.21, 0.51, -0.0, -0.51, -0.53, -0.65, -0.54, -1.24, -0.99, -0.57, -0.0, -0.0, 0.8, 1.58, 1.24, 1.24, 0.57, -0.0, -0.71, -0.65, -0.0, -0.0, -0.0, -0.0, -0.99, -1.13, -1.13, -0.99, -1.2, -0.0, -0.0, -0.0, -0.0, -0.0, -0.96, -1.72, -1.4, -0.0, -0.0, -0.0, 1.2, 1.26, 1.44, 0.77, -0.0, 0.72, 1.18, 2.42, 5.08, 9.21, 6.79, -0.0, -0.0, 2.45, 3.19, 2.34, 1.55, 2.33, 2.89, 3.22, 3.95, 6.28, 7.13, 4.12, 0.0, -1.83, -0.99, -2.68, -3.13, -3.13, -2.0, -1.6, -1.79, -2.8, -0.99, -1.13, 0.0, 2.84, 3.48, 3.84, 4.19, 4.46, 3.84, 3.58, 3.84, 5.06, 6.64, 7.41, 6.8, 4.98, 1.16, 1.61, 2.23, 2.23, 2.23, 2.23, 2.53, 3.07, 2.53, 1.16, -0.0, -0.0, -0.0, -0.0, -0.0, -0.71, -0.57, -0.57, -0.0, -0.0, 0.6, 0.95, 1.26, 1.26, 0.6, -0.0, -0.6, -0.57, -0.71, -0.54, -0.57, -0.0, -1.6, -1.2, -1.2, -1.2, -1.58, -0.0, -0.0, -0.0, -0.0, -1.08, -1.41, -2.8, -1.32, -1.32, -0.89, -0.0, -0.0, -0.0, -0.0, -0.0, -1.63, -1.52, -0.0, 0.88, 4.29, 9.86, 9.66, 0.78, -0.8, -0.0, 1.13, -0.0, -0.0, -0.0, -0.0, 0.73, 3.29, 6.56, 8.66, 8.93, 4.0, -3.16, -3.93, -3.35, -2.98, -2.97, -2.4, -2.24, -1.79, -1.58, -1.0, -1.0, 0.0, 0.99, 0.98, 1.66, 2.3, 3.07, 3.84, 3.84, 3.84, 5.15, 6.32, 7.03, 6.57, 4.98, 1.16, 1.61, 1.84, 2.23, 2.23, 2.23, 2.79, 3.07, 3.07, 1.88, 0.51, -0.0, -0.0, -0.0, -0.0, -0.0, -0.0, -0.8, -0.6, -0.0, 0.6, 0.6, 1.2, 0.95, -0.0, -0.0, -0.63, -0.95, -0.0, -0.0, -0.0, -0.0, -0.0, -0.0, -0.0, -0.0, 2.24, 1.34, 2.24, -0.0, -0.0, -1.55, -2.73, -2.98, -2.6, -1.52, -1.23, -1.52, -1.52, -0.0, -1.52, -1.7, -1.7, -2.2, -0.0, -0.0, 4.0, 6.79, 7.68, 1.22, -1.67, -1.4, -0.0, -0.0, -0.0, -0.0, -0.0, 1.4, 4.37, 6.95, 8.03, 10.0, 6.94, -1.2, -4.82, -2.24, 1.34, 1.34, 0.0, -1.2, -1.9, -1.58, -1.26, 0.0, 0.89, 0.0, 0.0, 0.0, 0.0, 2.0, 3.35, 3.35, 3.79, 4.46, 5.82, 6.57, 5.2, 5.2, 1.16, 1.61, 1.61, 2.53, 2.23, 2.23, 2.79, 3.07, 3.07, 2.21, 1.16, -0.0, -0.0, -0.0, -0.0, -0.0, -0.0, -0.0, -0.6, -0.0, -0.0, 0.6, 1.2, 0.95, -0.0, -0.0, -0.63, -0.0, 0.45, 0.45, 0.45, 0.45, -0.0, -0.0, -0.0, -0.0, 1.79, 1.79, 1.79, -0.0, -0.99, -0.98, -1.41, -2.98, -2.98, -1.41, -1.41, -1.41, -1.3, -1.3, -1.7, -1.55, -1.55, -0.0, -0.0, -0.0, 1.8, 2.0, 2.8, -0.0, -1.99, -1.7, -1.55, -0.0, -0.0, -0.0, -0.0, 3.0, 5.03, 6.98, 7.76, 9.26, 7.15, 1.34, -2.23, 1.72, 5.24, 6.44, 5.6, 3.13, 0.0, -2.21, -2.4, -1.79, 1.34, 1.34, 1.34, 0.0, 0.0, 1.08, 2.76, 2.4, 3.35, 4.46, 5.09, 5.82, 4.84, 4.84, 1.16, 1.16, 1.61, 2.21, 2.53, 2.53, 2.79, 3.6, 3.2, 2.79, 1.16, 0.61, 0.54, 0.57, 0.57, -0.0, -0.0, -0.0, -0.0, -0.0, -0.0, 0.95, 0.6, 0.95, -0.0, -0.0, -0.89, 0.45, 0.0, 0.45, 0.45, 0.45, 0.45, 1.34, 0.89, 1.26, 1.58, 2.68, 2.68, -0.0, -1.8, -0.98, -1.55, -0.98, -1.55, -1.55, -1.55, -0.0, -0.0, -0.0, -0.0, -0.0, -0.0, -0.0, -0.0, -0.0, -0.0, -0.0, -2.0, -0.0, -1.8, -1.8, -0.0, -0.0, -0.0, 0.99, 2.0, 2.2, 4.74, 8.0, 10.2, 8.94, 7.15, 3.79, 2.4, 4.8, 7.51, 9.48, 10.66, 9.6, 6.64, 1.2, -2.21, -2.0, -1.79, 1.34, 1.34, 0.0, 0.0, 1.83, 1.55, 1.47, 2.29, 4.01, 4.29, 4.43, 4.43, 4.43, 1.16, 1.16, 1.61, 1.88, 2.21, 2.53, 2.79, 3.14, 3.14, 2.79, 1.61, 1.16, 1.2, 0.71, 0.57, 0.57, -0.0, -0.0, -0.0, -0.0, -0.0, -0.0, 0.6, 0.6, -0.0, -0.89, -0.89, -0.89, 0.45, 0.45, 0.0, 0.0, 0.0, 0.45, 0.45, 1.34, 1.26, 2.21, -0.0, -0.0, -0.0, -1.55, -2.0, -1.8, -0.0, -0.0, -0.0, -0.0, -0.0, -0.0, -0.0, -0.0, -0.0, -0.0, -0.0, -1.6, -1.8, -0.0, -0.0, -0.0, -0.0, -0.0, -0.0, -0.0, -0.0, 1.13, 1.98, 4.02, 5.36, 8.94, 11.62, 10.7, 10.18, 9.05, 7.9, 7.48, 8.93, 11.28, 12.51, 12.23, 10.55, 7.1, 1.2, -2.24, -2.24, -2.24, -1.58, 0.0, 0.0, 0.98, 0.88, 0.88, 1.52, 3.0, 3.33, 3.72, 3.64, 3.64, 0.53, 1.16, 1.4, 1.88, 1.88, 2.21, 2.53, 2.79, 2.79, 2.23, 1.84, 1.88, 1.61, 1.49, 1.24, 1.2, -0.0, -0.0, -0.0, -0.0, -0.0, -0.0, -0.0, 1.0, -0.0, -0.0, -0.95, -1.34, -1.34, -0.89, 0.45, 0.0, 0.0, 0.0, 0.0, 0.89, 1.79, 1.86, 1.13, -0.0, -0.0, -0.0, -0.0, -0.0, -0.0, -0.0, -0.0, -0.0, -0.0, -0.0, -0.0, -0.0, -0.0, -0.0, -0.0, -0.0, -0.0, -0.0, 2.68, 2.68, -0.0, -0.0, -0.0, -0.0, -0.0, -0.0, 0.98, 2.97, 5.29, 8.94, 12.01, 13.72, 15.52, 14.83, 12.98, 10.68, 10.16, 11.59, 12.86, 12.74, 9.06, 5.36, -1.58, -3.04, -3.13, -2.68, -2.24, -0.95, 0.0, 0.0, 0.0, 0.96, 1.84, 2.35, 2.64, 2.64, 2.82, 2.82, 0.53, 1.2, 1.4, 1.88, 1.88, 2.21, 2.21, 2.21, 2.53, 2.23, 2.23, 1.88, 1.88, 1.9, 1.9, 1.24, 0.54, 0.54, 1.2, -0.0, -0.0, -0.6, -0.0, -0.0, -0.0, -0.0, -0.0, -0.0, -0.95, -0.89, -0.89, -0.89, -0.63, 0.0, 0.0, 0.95, 1.34, 2.12, 1.86, 1.24, 0.54, -0.0, -0.0, 0.6, 0.6, -0.0, -0.0, -0.0, -0.0, -0.0, -0.0, -0.0, -0.0, -0.0, -0.0, -0.0, -0.0, 0.89, 1.34, 2.24, 2.24, -0.0, -0.0, -1.8, -0.98, -0.0, -0.0, 1.98, 5.09, 7.63, 10.68, 14.42, 17.68, 18.5, 16.52, 14.11, 12.04, 11.6, 11.84, 11.15, 9.83, 7.55, 2.68, -3.13, -3.58, -2.68, -2.24, -1.34, 0.0, 1.26, 1.2, 1.27, 0.96, 0.83, 2.35, 2.51, 2.51, 2.51, 0.65, 1.2, 1.2, 1.61, 1.88, 1.88, 1.88, 1.88, 1.88, 2.53, 2.53, 2.21, 2.21, 2.5, 1.9, 1.49, 0.71, 0.71, 0.71, 1.2, -0.0, -0.0, -0.57, -0.0, -0.0, 0.54, 0.71, 0.57, -0.0, -0.0, 0.45, -0.89, -0.89, 0.0, 0.0, 0.0, 1.2, 1.79, 1.79, 1.7, 1.58, 1.26, 1.26, 1.6, 1.26, 1.9, -0.0, -0.0, -0.0, -0.0, -0.0, -0.0, -0.0, -0.0, -0.0, 1.4, 1.58, 1.34, 0.0, 2.24, 2.24, -2.68, -2.53, -2.53, -1.4, -0.0, -0.0, 1.27, 4.11, 6.18, 9.03, 12.98, 16.76, 17.42, 16.36, 14.17, 10.12, 10.18, 10.29, 10.85, 10.14, 8.49, 5.81, 1.34, -2.4, -2.4, -1.58, 1.34, 1.34, 2.0, 2.97, 2.8, 1.13, 0.0, 1.63, 2.35, 1.63, 1.63, 0.65, 1.2, 1.2, 1.2, 1.61, 1.88, 1.88, 1.88, 1.61, 2.21, 2.21, 2.21, 2.5, 2.5, 2.5, 1.9, 1.49, 0.71, 0.71, 0.71, -0.0, -0.0, -0.57, -0.8, -0.0, -0.0, 0.57, 1.26, 1.26, 0.95, 0.63, 0.45, 0.0, 0.45, 0.0, 0.0, 0.63, 1.2, 1.34, 1.34, 1.34, 1.6, 1.6, 1.6, 1.6, 1.6, 2.24, 1.79, 1.79, -0.0, -0.0, -0.0, -0.0, -0.0, 1.6, 2.84, 2.21, 1.34, -2.21, -2.21, -1.26, -2.24, -2.8, -2.4, -1.2, -0.0, -0.0, 1.13, 2.68, 4.02, 6.32, 9.76, 12.86, 10.75, 3.22, 5.78, 7.19, 8.1, 8.01, 8.93, 8.95, 8.01, 7.15, 5.81, 3.58, 1.58, 0.0, 1.79, 0.89, 1.58, 2.4, 2.24, 1.26, 0.0, 0.76, 1.6, 1.84, 1.84, 0.65, 0.65, 1.2, 1.2, 1.2, 1.61, 1.88, 1.88, 1.61, 1.9, 2.5, 2.5, 2.5, 2.5, 2.5, 2.5, 1.61, 1.24, 1.24, 0.71, -0.0, -0.0, -0.57, -0.6, -0.0, -0.0, 0.95, 1.2, 1.6, 1.6, 1.2, 1.34, 0.89, 0.89, 0.89, 0.0, 0.63, 0.89, 1.34, 1.34, 1.34, 1.34, 1.6, 1.6, 1.7, 1.6, 2.24, 1.79, 1.79, -0.0, -0.0, -0.0, -0.0, -0.0, -0.0, 1.8, 1.98, 1.58, 0.0, -0.99, -1.2, -2.24, -2.4, -1.9, -0.0, -0.0, -0.0, 1.4, 2.53, 2.23, 3.22, 5.03, 8.4, -1.9, -6.14, -0.76, 2.17, 4.92, 6.44, 6.36, 6.68, 7.12, 6.71, 6.71, 5.81, 4.92, 3.58, 2.68, -0.0, -2.97, 1.34, 0.89, 1.34, 1.26, 0.87, 1.47, 1.72, 1.72, 0.54, 0.54, 1.2, 1.2, 1.49, 1.2, 1.2, 1.61, 1.61, 1.9, 2.5, 2.5, 2.5, 2.5, 2.5, 2.5, 1.88, 1.61, 1.0, 0.71, 0.57, -0.0, -0.0, -0.0, -0.0, -0.0, -0.0, 0.95, 1.2, 1.6, 1.34, 1.34, 1.34, 1.34, 1.34, 0.89, 0.89, 1.34, 1.34, 1.34, 1.79, 1.79, 1.6, 1.6, 1.7, 1.7, 2.68, 2.24, 1.79, -0.0, -0.0, -0.0, -0.0, -0.0, -0.0, 1.8, 2.23, 1.98, 3.13, 0.0, -1.2, -2.24, -2.4, -1.2, -0.0, -0.0, 0.99, 2.53, 2.97, 3.39, 3.13, 11.18, 14.28, 10.16, 2.68, -3.16, -1.41, 1.14, 3.45, 4.5, 5.21, 6.07, 6.07, 6.26, 6.71, 6.64, 5.73, 3.39, -0.0, -1.4, -3.13, -1.26, 0.89, 0.95, 0.99, 1.55, 2.29, 2.29, 0.71, 0.71, 1.24, 1.24, 1.49, 1.24, 1.24, 1.9, 1.9, 1.9, 1.9, 2.5, 2.5, 2.5, 2.5, 2.5, 2.21, 1.61, 1.2, 1.24, 0.57, -0.0, -0.0, -0.0, -0.0, -0.0, -0.0, 0.63, 1.2, 1.34, 1.34, 1.34, 1.79, 1.79, 1.79, 1.79, 1.34, 1.34, 1.79, 1.79, 1.79, 1.7, 1.7, 1.7, 1.7, 2.24, 2.24, 1.7, 1.7, 1.6, 1.6, 1.58, -0.0, -0.0, 1.9, 1.6, 1.8, 1.27, 2.0, 2.53, 2.24, -2.68, -2.68, -1.4, -0.0, -0.0, 1.13, 2.53, 2.8, 3.58, 5.51, 9.24, 14.75, 15.31, 14.87, 9.8, 3.47, 0.0, 1.32, 2.4, 3.69, 5.06, 6.0, 6.55, 7.15, 7.15, 6.71, 5.26, 2.53, 1.9, 1.9, -2.0, -1.0, 0.0, 0.99, 1.66, 2.4, 2.4, 0.71, 0.71, 1.24, 1.24, 1.24, 1.24, 1.24, 1.58, 1.9, 1.9, 1.9, 1.9, 2.15, 2.15, 2.5, 2.5, 2.21, 1.61, 1.2, 1.24, 0.57, -0.0, -0.0, -0.0, -0.0, -0.0, -0.0, 0.89, 0.89, 1.34, 1.34, 1.34, 1.34, 1.79, 1.79, 1.79, 1.79, 1.79, 1.79, 1.79, 1.7, 2.12, 2.12, 2.12, 2.12, 2.24, 2.24, 2.24, 2.24, 2.24, 2.24, 1.79, 2.24, 1.58, 1.9, 1.4, -0.0, -0.0, 1.8, 3.48, 2.84, 2.24, -2.24, -1.4, -0.0, -0.0, 1.13, 1.98, 2.68, 3.39, 4.98, 9.03, 11.62, 14.57, 15.84, 15.1, 9.58, 3.16, 0.0, 0.83, 2.51, 4.29, 5.09, 6.07, 6.26, 7.15, 6.65, 5.51, 4.57, 3.6, 4.82, 0.89, -1.2, 0.0, 0.76, 2.0, 2.53, 2.53, 0.71, 0.71, 1.24, 1.24, 1.24, 1.24, 1.24, 1.24, 1.58, 1.9, 1.9, 1.9, 1.9, 2.15, 2.15, 2.5, 1.88, 1.61, 1.2, 1.2, 0.71, -0.0, -0.0, -0.0, -0.0, -0.0, -0.0, 0.89, 0.89, 0.89, 1.2, 1.2, 1.2, 1.6, 1.79, 2.24, 2.24, 1.79, 1.79, 1.79, 1.79, 1.7, 2.12, 2.17, 2.17, 2.6, 2.68, 2.68, 2.68, 2.24, 2.24, 1.79, 1.79, 1.79, 1.58, 1.0, -0.0, -0.0, 1.13, 2.23, 3.48, 2.21, -0.0, -0.99, -0.0, -0.0, 1.4, 2.21, 2.8, 4.02, 5.09, 7.37, 9.8, 12.04, 12.8, 14.3, 10.96, 1.26, -2.76, 0.0, 1.84, 3.11, 3.58, 3.04, 3.2, 3.58, 4.6, 4.6, 5.26, 4.92, 4.92, 5.36, 0.0, -1.13, 0.0, 0.98, 2.53, 2.53, 0.57, 0.57, 0.57, 1.24, 1.24, 1.24, 1.24, 1.58, 1.58, 1.9, 1.9, 1.9, 2.23, 1.9, 1.9, 1.9, 1.61, 1.61, 1.2, 1.2, 0.65, -0.0, -0.0, -0.0, -0.0, -0.0, -0.0, 0.63, 0.63, 0.63, 0.95, 0.95, 1.2, 1.6, 1.79, 2.24, 2.24, 2.24, 1.79, 1.6, 1.6, 1.7, 2.12, 2.17, 2.17, 2.17, 2.68, 2.68, 2.68, 2.68, 2.24, 2.24, 1.7, 1.79, 1.34, 1.26, -0.0, -0.0, 1.13, 1.98, 2.53, 2.53, 1.4, -0.0, -0.0, -0.0, 2.4, 2.68, 3.13, 4.02, 5.73, 7.42, 8.56, 9.24, 10.28, 12.96, 10.7, 0.0, -4.54, 0.0, 0.88, 0.6, -0.0, -0.0, -0.0, -0.0, 0.7, 3.16, 4.82, 5.36, 5.36, 5.81, 4.02, 0.0, -0.99, 0.0, 1.66, 1.66, 0.57, 0.57, 0.57, 1.24, 1.24, 1.24, 1.24, 1.58, 1.58, 1.58, 1.9, 1.9, 2.15, 1.9, 1.9, 1.61, 1.2, 1.2, 1.2, 1.2, 0.53, 0.65, -0.0, -0.0, -0.0, 0.95, 0.63, 0.95, 0.6, 0.6, 0.95, 0.95, 1.2, 1.6, 1.7, 2.24, 2.24, 2.12, 1.7, 1.7, 1.6, 1.7, 1.7, 2.4, 2.54, 2.17, 2.24, 2.12, 2.12, 2.6, 2.17, 2.12, 2.12, 1.7, 1.6, 1.34, 2.24, -0.0, 1.13, 1.27, 1.13, 1.2, -0.0, -0.0, -0.0, 2.21, 3.13, 2.68, 2.8, 3.9, 5.75, 8.33, 9.49, 9.42, 10.29, 12.51, 11.2, 2.0, -3.93, -1.08, 0.0, -0.0, 0.53, 0.53, -0.0, -0.0, -0.0, -0.0, 2.98, 3.6, 4.0, 4.82, 4.85, 2.68, 0.0, 0.0, 0.87, 0.87, 0.57, 0.57, 0.57, 0.99, 1.24, 1.24, 1.24, 1.58, 1.58, 1.58, 1.58, 1.9, 2.15, 1.9, 1.9, 1.61, 1.2, 1.2, 1.2, 0.65, 0.65, 0.54, 0.57, 0.8, 0.6, 0.95, 0.95, 0.6, 0.6, 0.95, 0.63, 0.95, 1.2, 1.6, 1.7, 2.12, 2.12, 2.12, 1.7, 1.7, 1.7, 1.7, 1.7, 1.7, 2.12, 3.13, 2.68, 1.2, 1.2, 1.6, 1.26, 1.58, 1.86, 1.26, 1.26, 1.7, 1.79, 1.6, 1.13, -0.0, -0.0, -1.2, -0.0, -0.0, 1.2, 2.21, 3.39, 4.47, 2.53, 3.16, 5.6, 8.33, 11.14, 12.09, 12.51, 12.84, 12.27, 8.4, 2.84, -1.13, -1.13, -0.0, 0.57, 1.58, 1.58, 1.74, -0.0, -0.85, -0.85, -0.0, 0.99, 2.98, 4.15, 5.36, 3.58, 2.54, 2.21, 2.21, 0.57, 0.57, 0.57, 0.99, 1.24, 1.24, 1.24, 1.58, 1.58, 1.58, 1.58, 1.9, 2.15, 2.21, 1.88, 1.61, 1.2, 1.2, 0.54, 0.54, 0.71, 0.8, 0.8, 0.8, 0.6, 0.6, 0.6, 0.6, 0.95, 0.63, 0.63, 0.63, 0.95, 1.2, 1.7, 1.7, 2.12, 2.12, 1.7, 1.7, 1.7, 1.7, 1.7, 1.79, 1.79, 2.68, 2.68, 1.34, 0.95, 1.2, 1.6, 1.26, 1.26, 1.58, 1.26, 1.86, 2.12, 2.24, 1.26, -0.0, -2.21, -2.4, -2.24, -0.0, 1.9, 2.8, 2.97, 4.92, 5.09, 5.21, 4.54, 6.16, 9.83, 14.3, 15.45, 13.49, 11.28, 10.15, 9.54, 6.7, 0.99, -1.58, 0.0, 1.2, 2.4, 2.49, 2.17, -0.0, -1.58, -1.9, -0.0, 1.0, 3.6, 5.31, 5.36, 4.92, 4.47, 4.47, 0.57, 0.57, 0.57, 0.99, 1.26, 1.58, 1.58, 1.24, 1.58, 1.58, 1.58, 1.9, 1.9, 1.88, 1.88, 1.88, 1.2, 1.2, 0.71, 0.71, 0.57, 0.8, 0.8, 0.8, 0.6, 0.6, 0.6, 0.6, 1.26, 0.63, 0.63, 0.63, 0.95, 1.2, 1.6, 1.7, 2.12, 2.12, 1.7, 1.7, 1.7, 1.7, 1.79, 1.79, 2.24, 2.68, 2.68, 2.24, 1.79, 1.7, 1.7, 1.7, 1.26, 1.26, 1.26, 1.86, 1.86, 2.12, 1.34, -0.0, -2.4, -2.24, 1.34, 1.26, 1.58, 2.4, 2.97, 4.47, 6.26, 6.71, 4.57, 4.57, 7.45, 12.96, 17.43, 14.4, 7.76, 6.11, 8.95, 10.32, 7.28, 1.9, 0.0, 0.89, 2.24, 3.09, 3.09, 2.24, 2.24, 0.89, -0.0, -0.0, 2.6, 4.66, 5.77, 6.21, 6.26, 6.26, 0.57, 0.57, 0.57, 1.26, 1.26, 1.26, 1.58, 1.24, 1.24, 1.58, 1.58, 1.9, 1.9, 1.9, 1.88, 1.88, 1.2, 1.2, 1.24, 1.24, 1.24, 1.26, 0.8, 0.8, 0.6, 0.6, 0.6, 0.6, 0.95, 1.26, 0.95, 0.95, 0.95, 1.2, 1.6, 1.7, 2.12, 2.12, 2.12, 1.7, 1.7, 1.7, 2.24, 2.24, 2.24, 2.68, 3.13, 3.13, 2.6, 2.6, 2.17, 2.12, 1.86, 1.86, 1.58, 1.58, 2.12, 2.17, 1.79, 0.89, -0.0, -0.0, -0.0, 1.58, 1.58, 1.58, 2.4, 3.58, 5.81, 6.71, 5.29, 4.92, 6.02, 10.68, 18.26, 16.09, 4.57, 0.0, 4.46, 8.19, 9.36, 7.15, 5.36, 4.47, 2.68, 3.58, 3.99, 3.98, 5.36, 3.58, 2.24, 1.34, 2.0, 4.38, 5.77, 6.65, 6.71, 6.71, 0.57, 0.57, 0.8, 1.26, 1.26, 1.26, 1.26, 1.58, 1.24, 1.24, 1.58, 1.58, 1.9, 1.9, 1.61, 1.61, 1.9, 1.49, 1.24, 1.24, 1.24, 1.26, 1.26, 0.8, 0.8, 0.6, 0.6, 0.95, 0.95, 0.6, 0.6, 0.95, 1.2, 1.2, 1.6, 1.7, 2.12, 2.12, 2.12, 2.12, 2.12, 2.24, 2.24, 2.24, 2.68, 2.68, 3.07, 3.07, 3.07, 3.07, 2.6, 2.4, 2.4, 1.86, 1.86, 1.58, 1.6, 1.7, 2.12, 1.79, 1.6, -0.0, -0.0, -0.0, -0.0, -0.0, 1.58, 2.4, 4.47, 5.64, 5.09, 6.71, 8.06, 10.63, 16.27, 16.99, 9.36, 3.13, 3.51, 6.21, 7.6, 8.49, 8.49, 8.05, 7.15, 4.47, 4.89, 4.89, 7.6, 6.26, 4.82, 3.58, 2.68, 4.02, 5.81, 7.11, 7.12, 7.12, 0.57, 0.57, 1.26, 1.26, 1.26, 1.26, 1.26, 1.58, 1.24, 1.24, 1.58, 1.58, 1.58, 1.9, 1.24, 1.49, 1.49, 1.24, 1.24, 1.24, 1.24, 1.26, 1.26, 1.26, 0.8, 0.6, 0.6, 0.95, 0.95, 0.95, 0.95, 1.2, 1.2, 1.2, 1.6, 1.6, 2.12, 2.12, 2.12, 2.12, 2.24, 2.24, 2.24, 2.24, 2.68, 3.13, 3.07, 3.07, 3.07, 2.91, 2.8, 2.4, 2.4, 2.23, 1.86, 1.58, 1.26, 1.2, 1.79, 1.79, 1.24, -0.0, -0.0, -0.0, -0.0, -0.0, -0.0, 1.58, 2.4, 3.39, 4.38, 7.15, 10.2, 12.09, 14.21, 15.2, 14.11, 11.96, 9.83, 8.8, 7.76, 8.01, 8.94, 9.39, 8.94, 5.81, 5.79, 9.39, 8.49, 8.05, 7.1, 5.75, 4.85, 4.85, 5.81, 6.71, 7.6, 7.6, 0.99, 0.99, 1.26, 1.26, 1.26, 1.26, 1.26, 1.26, 1.58, 1.58, 1.24, 1.24, 1.24, 1.24, 1.24, 1.24, 1.24, 1.24, 1.24, 1.24, 1.24, 1.26, 1.26, 1.26, 0.8, 0.6, 0.6, 0.95, 0.95, 0.95, 0.95, 1.2, 1.2, 1.6, 1.6, 1.6, 1.7, 2.12, 2.12, 2.12, 2.24, 2.24, 2.24, 2.24, 2.68, 3.07, 3.07, 3.07, 2.91, 2.91, 2.8, 2.4, 2.4, 2.23, 1.58, 1.58, 1.26, 0.6, 1.2, 1.34, 0.89, -0.0, -0.0, -0.0, -0.0, -0.0, 1.58, 1.58, 1.58, 2.8, 4.92, 5.36, 9.83, 12.52, 12.94, 12.96, 12.94, 14.22, 14.75, 12.79, 9.6, 8.19, 8.38, 9.36, 9.83, 9.83, 9.83, 9.83, 9.39, 8.94, 8.49, 8.05, 7.11, 6.65, 6.21, 6.66, 7.6, 7.6, 1.26, 1.26, 1.26, 1.26, 1.26, 1.26, 1.26, 1.26, 1.26, 1.58, 1.24, 1.24, 1.24, 1.24, 1.24, 1.24, 1.24, 1.24, 1.24, 1.24, 1.24, 1.24, 1.26, 1.26, 0.8, 0.6, 0.6, 0.6, 0.95, 0.95, 0.95, 1.2, 1.2, 1.6, 1.26, 1.26, 1.7, 2.12, 2.12, 2.24, 2.24, 1.79, 1.79, 2.68, 2.68, 2.68, 3.07, 2.91, 2.91, 2.91, 2.8, 2.4, 1.9, 1.9, 1.58, 1.24, 1.24, 0.8, 1.7, 1.6, 0.89, -0.0, -0.0, -0.0, -0.0, -0.0, 1.58, 1.58, 1.58, 1.58, 2.8, 3.9, 7.94, 12.91, 13.41, 11.96, 11.52, 13.76, 15.57, 13.34, 9.72, 7.92, 8.38, 9.28, 9.81, 9.81, 9.81, 9.81, 9.83, 9.39, 9.39, 9.39, 9.36, 8.46, 8.01, 7.45, 7.56, 7.15, 1.26, 1.26, 1.26, 1.26, 1.26, 1.26, 1.26, 1.26, 1.26, 1.58, 1.24, 1.58, 1.24, 1.24, 1.24, 1.24, 1.24, 1.24, 1.24, 1.24, 1.24, 1.58, 1.26, 1.26, 1.26, 0.6, 0.6, 0.6, 0.95, 0.95, 1.2, 1.2, 1.2, 1.26, 1.26, 1.6, 1.7, 2.12, 2.24, 2.24, 1.79, 1.79, 1.79, 2.68, 2.24, 2.68, 2.63, 2.4, 2.8, 2.4, 2.15, 1.9, 1.9, 1.9, 1.24, 1.24, 1.24, 0.8, 1.7, 1.7, 1.2, 0.45, -0.0, -0.0, -0.0, -0.0, -0.0, -0.0, -0.0, 1.58, 2.24, 3.58, 7.15, 11.96, 15.56, 12.96, 10.75, 12.3, 13.12, 11.6, 8.94, 8.05, 8.36, 8.36, 8.46, 8.91, 9.36, 8.94, 8.94, 9.39, 9.8, 9.81, 10.25, 9.8, 9.36, 8.82, 8.38, 7.56, 1.26, 1.26, 1.26, 1.26, 1.26, 1.26, 1.26, 1.26, 1.58, 1.58, 1.58, 1.58, 1.58, 1.26, 0.99, 0.99, 1.24, 1.24, 1.24, 1.24, 1.24, 1.26, 1.26, 1.26, 1.26, 0.6, 0.6, 0.6, 0.95, 1.2, 1.2, 1.2, 1.2, 1.26, 1.26, 1.6, 1.7, 2.24, 2.24, 1.79, 1.79, 1.79, 1.79, 1.34, 2.68, 2.68, 2.17, 1.86, 1.86, 1.9, 1.9, 1.9, 1.9, 1.49, 1.24, 1.24, 0.71, 1.26, 1.86, 1.86, 1.2, 0.45, -0.0, -0.0, -0.0, -0.0, -0.0, -0.0, -0.0, 1.58, 2.24, 2.68, 6.26, 10.66, 14.53, 13.72, 11.18, 9.75, 9.06, 6.26, 4.92, 5.81, 6.71, 6.71, 7.15, 8.05, 8.49, 8.94, 8.94, 8.9, 9.36, 9.72, 10.16, 10.16, 10.14, 10.14, 9.15, 8.38, 1.49, 1.49, 1.49, 1.49, 1.49, 1.26, 1.26, 1.58, 1.58, 1.86, 1.86, 1.86, 1.58, 1.26, 1.26, 0.99, 0.99, 0.99, 1.24, 1.24, 1.58, 1.26, 1.26, 1.26, 1.26, 0.8, 0.6, 0.95, 0.95, 1.2, 1.2, 1.2, 1.2, 1.26, 1.6, 1.6, 1.7, 1.79, 1.79, 1.79, 1.79, 1.79, 1.79, 1.79, 1.7, 3.13, 2.12, 1.6, 1.26, 1.58, 1.24, 1.24, 1.24, 1.24, 1.24, 1.24, 0.71, 1.24, 1.58, 1.58, 1.26, 0.45, -0.0, -0.0, 2.24, 2.24, -0.0, -0.0, -0.0, 1.58, 2.24, 2.97, 5.36, 8.05, 10.6, 14.6, 13.99, 9.83, 4.15, 1.79, 2.54, 5.16, 7.45, 8.01, 8.49, 9.39, 9.83, 9.83, 9.39, 9.8, 9.7, 9.7, 10.02, 9.97, 10.02, 10.45, 10.45, 10.45, 2.12, 2.12, 1.86, 1.86, 1.86, 1.86, 1.86, 1.86, 1.86, 1.86, 1.86, 1.86, 1.58, 1.26, 1.26, 0.8, 1.26, 1.26, 1.26, 1.26, 1.26, 1.26, 1.26, 1.26, 1.26, 0.8, 0.6, 0.95, 1.2, 1.2, 1.2, 1.2, 1.2, 1.6, 1.6, 1.7, 1.7, 1.79, 1.79, 1.79, 1.79, 1.79, 1.79, 1.7, 1.86, 2.6, 2.17, 1.7, 1.6, 1.26, 1.26, 1.24, 1.24, 1.24, 1.24, 1.24, 0.54, 1.49, 1.9, 1.9, 0.8, 0.45, 0.45, 1.79, 1.79, 1.79, 1.79, 2.24, 1.79, 2.24, 2.68, 2.97, 5.36, 5.81, 8.49, 12.45, 15.84, 14.92, 8.33, 4.57, 5.43, 8.48, 10.52, 11.15, 10.73, 11.18, 11.15, 11.15, 10.62, 10.49, 10.45, 10.25, 10.25, 10.18, 10.68, 10.68, 10.68, 10.68, 2.12, 2.12, 1.86, 1.86, 1.86, 1.86, 1.86, 1.86, 1.86, 1.86, 1.86, 1.86, 1.24, 0.99, 1.26, 0.8, 0.8, 1.26, 1.26, 1.26, 1.26, 1.26, 1.26, 1.26, 1.26, 1.26, 1.26, 1.2, 1.2, 1.2, 1.2, 1.2, 1.2, 1.6, 1.6, 1.6, 1.7, 1.79, 1.79, 1.79, 1.79, 1.79, 1.79, 2.12, 1.86, 2.4, 2.6, 2.17, 2.12, 1.49, 1.26, 1.26, 1.24, 1.24, 1.24, 1.2, 1.2, 1.2, 1.88, 1.61, 0.57, 0.0, 0.45, 1.79, 1.79, 1.79, 1.79, 2.24, 1.79, 2.24, 2.68, 2.97, 4.34, 6.2, 7.55, 9.39, 13.18, 15.52, 14.3, 11.26, 10.66, 11.99, 13.09, 12.94, 11.6, 10.96, 10.93, 11.18, 11.18, 10.95, 10.95, 10.52, 10.43, 10.15, 10.32, 9.9, 9.9, 9.9, 2.17, 2.17, 1.86, 1.86, 1.86, 1.86, 1.86, 1.86, 2.4, 2.23, 1.86, 1.58, 1.24, 1.24, 1.26, 0.8, 0.8, 0.8, 1.26, 1.26, 1.26, 1.26, 1.26, 1.26, 1.26, 1.26, 1.26, 1.6, 1.2, 1.2, 1.2, 1.6, 1.6, 1.6, 1.6, 1.6, 1.6, 1.79, 1.79, 1.79, 1.79, 1.79, 1.79, 2.12, 2.12, 2.4, 2.4, 2.4, 2.4, 1.86, 1.86, 1.26, 1.24, 1.24, 1.24, 1.2, 1.16, 1.61, 1.61, 1.61, 0.57, 0.0, -0.63, 0.45, 1.79, 1.79, 2.24, 1.79, 1.79, 2.24, 3.58, 3.13, 3.9, 5.73, 6.71, 7.6, 9.7, 12.04, 12.86, 11.9, 11.82, 13.98, 14.53, 12.66, 10.28, 8.67, 8.67, 9.6, 10.15, 10.55, 10.8, 9.84, 10.23, 9.65, 10.0, 9.6, 9.6, 9.6, 2.6, 2.6, 2.4, 2.4, 1.86, 2.4, 2.4, 2.4, 2.4, 2.4, 1.86, 1.58, 1.24, 1.24, 1.26, 0.8, 0.8, 0.8, 0.8, 0.8, 1.26, 1.26, 1.26, 1.26, 1.26, 1.26, 1.6, 1.6, 1.6, 1.6, 1.6, 1.6, 1.6, 1.6, 1.6, 1.6, 1.6, 1.79, 1.79, 1.79, 1.79, 1.79, 1.7, 2.12, 2.12, 2.4, 2.4, 2.4, 2.4, 2.4, 1.86, 1.24, 1.24, 1.24, 1.24, 1.4, 1.61, 1.84, 1.84, 1.88, 0.71, 0.0, -0.6, 0.0, 0.45, 2.24, 2.24, 1.79, 1.79, 2.24, 2.24, 2.68, 3.58, 4.47, 5.81, 6.02, 7.85, 9.75, 10.04, 9.27, 10.51, 13.49, 15.47, 13.74, 10.6, 7.56, 6.36, 7.07, 8.06, 9.1, 8.37, 8.42, 9.43, 9.43, 9.05, 9.05, 9.05, 9.05, 2.6, 2.6, 2.4, 2.4, 2.4, 2.4, 2.4, 2.4, 2.4, 2.4, 1.9, 1.58, 1.24, 1.58, 1.26, 1.26, 0.8, 0.8, 0.8, 0.8, 0.8, 1.26, 1.26, 1.26, 1.26, 1.26, 1.6, 1.6, 1.6, 1.6, 1.6, 1.6, 1.6, 1.6, 1.6, 1.6, 1.6, 1.79, 1.79, 1.79, 1.79, 1.79, 1.7, 2.12, 2.12, 2.4, 2.4, 2.15, 2.15, 1.9, 1.9, 1.9, 1.49, 1.49, 1.2, 1.88, 1.61, 2.23, 2.23, 1.88, 1.24, 0.0, -0.57, 0.0, 0.0, 2.24, 2.24, 1.79, 1.79, 1.34, 1.79, 2.24, 2.68, 3.58, 4.38, 5.29, 6.51, 8.3, 8.43, 7.35, 9.0, 12.27, 14.88, 14.82, 12.9, 7.03, 3.13, 3.48, 4.29, 5.77, 6.18, 6.79, 7.81, 8.06, 8.67, 8.67, 8.67, 8.67, 2.6, 2.6, 2.6, 2.6, 2.4, 2.4, 2.4, 2.4, 2.4, 2.4, 2.23, 1.86, 1.86, 1.58, 1.26, 1.26, 0.6, 0.6, 0.6, 0.6, 0.6, 0.8, 1.26, 1.26, 1.26, 1.6, 1.6, 1.6, 1.6, 1.6, 1.6, 1.6, 1.6, 1.6, 1.6, 1.6, 1.6, 1.79, 1.79, 1.79, 1.79, 1.79, 1.7, 2.12, 2.12, 2.4, 2.4, 2.15, 1.9, 1.9, 1.9, 1.9, 1.61, 1.2, 1.4, 1.88, 1.61, 2.23, 2.23, 2.21, 1.2, 0.71, 0.0, 0.0, 0.0, 2.24, 2.24, 1.79, 1.79, 1.34, 1.34, 1.79, 2.68, 3.13, 3.9, 4.82, 6.02, 6.8, 7.44, 7.41, 7.76, 10.04, 11.9, 13.68, 12.39, 3.11, -2.6, -1.0, 1.6, 2.68, 3.79, 4.89, 6.21, 6.18, 7.07, 7.44, 7.44, 7.44, 2.63, 2.63, 2.63, 2.63, 2.6, 2.4, 2.4, 2.4, 2.4, 2.4, 2.23, 1.86, 1.86, 1.26, 1.26, 1.26, 0.6, 0.6, 0.6, 0.6, 0.6, 0.6, 0.6, 1.2, 1.2, 1.6, 1.6, 1.6, 1.6, 1.6, 1.6, 1.6, 1.6, 1.6, 1.6, 1.6, 1.6, 1.79, 1.79, 1.79, 1.79, 1.79, 1.7, 2.12, 1.86, 2.4, 2.4, 2.15, 1.9, 1.9, 1.9, 1.9, 1.61, 1.88, 1.16, 1.61, 1.84, 2.23, 2.23, 2.53, 1.61, 0.54, 0.0, 0.0, 0.6, 0.0, 0.0, 0.0, 0.0, 1.34, 1.34, 1.34, 2.24, 2.68, 3.39, 4.38, 5.09, 5.6, 6.18, 6.79, 7.44, 7.41, 8.22, 12.26, 11.94, 1.8, -4.02, -2.68, -1.58, 0.0, 0.85, 3.35, 3.58, 4.6, 5.21, 5.82, 5.82, 5.82, 2.63, 3.13, 3.07, 2.63, 2.6, 2.4, 2.4, 2.4, 2.4, 2.4, 1.86, 1.86, 1.86, 1.26, 1.26, 1.2, 0.95, 0.95, 0.95, 0.95, 0.95, 0.95, 0.95, 0.95, 1.2, 1.2, 1.6, 1.6, 1.6, 1.6, 1.6, 1.6, 1.6, 1.6, 1.6, 1.6, 1.2, 1.79, 1.79, 1.79, 1.79, 1.79, 1.7, 2.12, 2.4, 2.4, 2.4, 1.9, 1.9, 1.9, 1.9, 1.9, 1.61, 1.88, 1.61, 1.84, 1.84, 2.51, 2.51, 2.23, 1.88, 0.65, 0.54, 0.0, 0.6, 1.58, 0.0, 0.0, 0.0, 0.0, 0.0, 1.79, 1.79, 2.68, 2.97, 3.9, 4.4, 4.6, 5.21, 6.18, 6.82, 6.18, 6.11, 10.23, 13.49, -4.41, -3.83, -2.98, -2.0, 0.89, 0.0, 0.0, 1.2, 3.35, 3.93, 3.79, 3.79, 3.79, 3.13, 3.13, 3.07, 3.07, 2.4, 2.4, 2.4, 2.4, 2.4, 2.4, 2.0, 1.86, 1.86, 1.6, 1.6, 1.2, 0.95, 0.95, 0.95, 0.95, 0.95, 0.95, 0.95, 0.95, 1.2, 1.2, 1.6, 1.6, 1.6, 1.6, 1.6, 1.6, 1.6, 1.6, 1.6, 1.2, 1.34, 1.34, 1.79, 1.79, 1.79, 1.7, 2.12, 1.86, 2.23, 2.4, 2.23, 1.9, 1.9, 1.9, 1.9, 1.61, 1.61, 1.88, 1.88, 1.84, 2.23, 2.51, 2.51, 2.23, 1.88, 1.2, 0.54, 0.0, 0.6, 0.63, 1.2, 0.0, 0.0, 0.0, 0.0, 1.58, 1.26, 1.79, 2.4, 2.97, 3.35, 4.0, 4.98, 5.6, 5.82, 5.58, 5.6, 9.06, 8.49, -2.4, -3.79, -1.66, -0.0, -0.0, -0.0, 0.89, 0.0, 0.99, 2.23, 2.0, 2.0, 2.0, 3.13, 3.13, 3.07, 2.91, 2.91, 2.4, 2.4, 2.4, 2.4, 2.4, 2.0, 2.12, 2.12, 1.6, 1.6, 1.2, 0.95, 0.63, 0.63, 0.95, 0.95, 0.95, 0.95, 0.95, 1.2, 1.2, 1.2, 1.6, 1.6, 1.6, 1.6, 1.6, 1.6, 1.6, 1.2, 1.2, 1.34, 1.34, 1.79, 1.79, 1.79, 1.7, 2.12, 1.86, 1.86, 1.86, 2.23, 1.9, 1.9, 1.9, 1.49, 1.2, 1.2, 1.88, 1.88, 1.84, 2.23, 2.51, 2.51, 2.23, 1.61, 0.65, 0.65, 0.0, 0.0, 0.6, 2.21, 2.4, 2.24, 2.24, 2.0, 1.58, 2.24, 1.79, 2.24, 2.68, 3.39, 4.34, 4.82, 5.29, 6.02, 6.02, 6.02, 15.2, 10.73, -0.0, -3.22, -2.2, -0.87, -0.99, -0.99, -1.58, 1.34, 0.0, 0.0, 0.0, 0.0, 0.0, 3.09, 3.09, 3.07, 2.91, 2.91, 2.5, 2.8, 2.4, 2.4, 2.4, 2.4, 2.12, 2.12, 1.6, 1.2, 0.95, 0.63, 0.63, 0.63, 0.63, 0.63, 0.63, 0.95, 0.95, 1.2, 1.2, 1.2, 1.2, 1.6, 1.6, 1.6, 1.6, 1.2, 1.2, 1.2, 1.34, 1.34, 1.34, 1.34, 1.79, 1.7, 2.12, 1.86, 1.86, 1.86, 1.86, 2.23, 1.9, 1.9, 1.9, 1.49, 1.2, 1.88, 1.88, 1.61, 1.84, 2.51, 2.51, 2.23, 1.84, 1.16, 0.53, 0.65, 0.0, 0.0, 0.6, 1.49, 1.79, 3.58, 3.13, 2.68, 2.24, 1.79, 1.34, 1.79, 2.24, 3.13, 4.47, 5.36, 5.36, 5.73, 6.2, 9.83, 14.73, 10.26, -0.0, -3.72, -2.98, -3.07, -3.16, -3.22, -1.9, -1.26, 1.79, 0.0, -1.2, -1.2, -1.2, 3.53, 3.53, 3.39, 2.91, 2.68, 2.5, 2.8, 2.4, 2.4, 2.4, 2.6, 2.12, 1.7, 1.6, 1.2, 0.95, 0.63, 0.63, 0.63, 0.63, 0.63, 0.63, 0.63, 0.95, 0.95, 1.2, 1.2, 1.2, 1.2, 1.2, 1.2, 1.2, 1.2, 1.2, 1.2, 1.34, 1.34, 1.34, 1.34, 1.7, 2.12, 2.12, 1.86, 1.86, 1.86, 1.86, 1.86, 1.9, 1.9, 1.9, 1.49, 1.2, 1.88, 1.88, 1.84, 2.23, 2.51, 2.23, 2.51, 1.84, 1.16, 0.53, 0.53, 0.0, 0.0, 0.57, 1.26, 1.79, 3.58, 3.13, 2.68, 2.24, 1.79, 1.34, 1.79, 1.58, 3.13, 4.02, 4.92, 5.36, 5.36, 6.2, 8.9, 13.05, 9.97, -0.0, -5.21, -4.43, -4.46, -4.84, -4.15, -2.97, -2.4, -2.68, -2.4, -2.21, -2.21, -2.21, 3.53, 3.53, 3.39, 2.91, 2.91, 2.91, 2.91, 2.4, 2.4, 2.6, 2.17, 2.12, 1.7, 1.6, 1.2, 0.95, 0.89, 0.89, 0.89, 0.89, 0.89, 0.63, 0.63, 0.89, 1.34, 0.95, 0.95, 1.2, 1.2, 1.2, 1.2, 1.2, 1.2, 1.2, 1.34, 1.34, 1.34, 1.34, 1.79, 1.7, 2.12, 2.12, 1.86, 1.86, 1.86, 1.86, 1.58, 1.58, 1.9, 1.9, 1.49, 1.2, 1.88, 1.61, 1.84, 2.23, 2.51, 2.23, 1.84, 1.61, 1.16, 0.61, 0.53, 0.53, 0.65, 0.54, 1.24, 1.49, 1.7, 3.13, 2.68, 2.24, 1.79, 1.79, 1.79, 1.58, 2.8, 3.9, 4.92, 5.36, 5.36, 6.71, 7.6, 11.36, 10.93, 1.79, -5.59, -5.43, -5.43, -5.34, -4.85, -4.41, -3.47, -3.58, -2.97, -2.53, -2.53, -2.53, 3.53, 3.53, 3.39, 3.32, 2.91, 2.91, 2.91, 2.4, 2.6, 2.6, 2.17, 2.12, 1.7, 1.6, 1.2, 0.95, 0.89, 0.89, 0.89, 0.89, 0.89, 0.89, 0.89, 0.89, 0.89, 0.95, 0.95, 0.95, 0.95, 1.2, 1.2, 1.2, 1.2, 1.34, 1.34, 1.34, 1.34, 1.34, 1.6, 1.7, 2.12, 2.12, 1.86, 1.58, 1.58, 1.58, 1.58, 1.58, 1.9, 1.9, 1.49, 1.88, 1.88, 1.84, 1.84, 2.23, 2.51, 2.51, 1.84, 1.16, 1.16, 0.61, 0.61, 0.53, 0.53, 0.65, 1.2, 1.24, 1.58, 2.8, 2.4, 2.24, 1.79, 1.79, 1.58, 1.58, 2.4, 3.39, 4.38, 4.92, 5.81, 6.71, 7.15, 9.39, 11.6, 5.29, -4.02, -5.75, -5.43, -5.2, -5.16, -5.31, -4.41, -4.02, -3.39, -2.98, -2.98, -2.98, 3.53, 3.53, 3.39, 3.39, 2.91, 2.91, 2.49, 2.6, 2.6, 2.6, 2.17, 2.12, 1.7, 1.2, 1.2, 1.34, 0.89, 0.89, 0.89, 0.89, 0.89, 0.89, 0.89, 0.89, 0.89, 0.63, 0.95, 0.95, 0.95, 0.95, 0.95, 1.34, 1.34, 1.34, 1.34, 1.34, 1.34, 1.6, 1.6, 1.7, 1.7, 1.26, 1.26, 1.58, 1.58, 1.58, 1.24, 1.24, 1.9, 1.9, 1.9, 1.88, 1.61, 1.84, 1.84, 2.23, 2.23, 1.84, 1.61, 1.16, 1.16, 0.61, 0.61, 0.61, 0.61, 0.61, 1.16, 1.4, 1.88, 2.98, 2.4, 2.24, 1.79, 2.24, 2.24, 1.58, 2.4, 2.8, 3.9, 4.47, 5.36, 6.26, 7.55, 8.77, 11.15, 9.8, 0.99, -4.92, -5.34, -5.34, -5.59, -5.77, -4.92, -4.47, -3.9, -3.35, -3.35, -3.35, 3.53, 3.53, 3.53, 3.53, 3.07, 3.07, 2.63, 2.6, 2.6, 2.17, 2.12, 1.7, 1.6, 1.2, 1.34, 0.89, 0.89, 0.89, 0.89, 0.89, 0.89, 0.89, 0.89, 0.89, 0.89, 0.63, 0.63, 0.95, 0.95, 0.95, 1.34, 1.34, 1.34, 1.34, 1.34, 1.34, 1.2, 1.6, 1.6, 1.6, 1.26, 1.26, 1.26, 1.58, 1.58, 1.24, 1.24, 1.24, 1.49, 1.9, 1.61, 1.88, 1.84, 1.84, 1.84, 2.23, 1.84, 1.61, 1.4, 1.16, 1.16, 0.61, 0.61, 0.61, 0.61, 1.16, 1.33, 1.33, 1.84, 2.21, 2.4, 2.68, 2.24, 2.68, 2.68, 2.24, 1.58, 1.58, 2.8, 4.02, 4.82, 6.2, 7.42, 8.63, 10.45, 11.52, 7.63, 0.0, -4.02, -4.85, -5.16, -5.75, -5.36, -4.92, -4.38, -3.6, -3.6, -3.6, 3.53, 3.53, 3.53, 3.09, 3.07, 2.63, 2.6, 2.6, 2.17, 2.17, 1.7, 1.7, 1.6, 1.34, 1.34, 0.89, 0.89, 0.89, 0.89, 0.89, 0.89, 0.89, 0.89, 0.89, 0.89, 0.89, 0.63, 0.63, 0.89, 0.89, 0.89, 0.89, 0.89, 0.89, 1.34, 1.34, 1.6, 1.6, 1.6, 1.6, 1.26, 1.26, 1.26, 1.58, 1.58, 1.24, 1.24, 1.24, 1.49, 1.49, 1.61, 1.61, 1.84, 1.84, 1.84, 1.84, 1.88, 1.88, 1.4, 1.16, 1.16, 0.61, 0.61, 0.51, 0.59, 1.13, 1.13, 1.13, 1.6, 2.23, 2.68, 3.13, 2.4, 2.21, 2.68, 2.68, 2.24, 1.58, 2.4, 2.98, 4.38, 6.02, 7.42, 9.24, 10.02, 11.06, 10.7, 8.33, 3.2, -2.0, -4.47, -4.92, -4.92, -4.85, -4.38, -3.2, -3.2, -3.2, 3.53, 3.53, 3.53, 3.07, 3.07, 2.63, 2.6, 2.24, 2.24, 2.24, 1.79, 1.79, 1.34, 1.34, 1.34, 1.34, 0.89, 0.89, 0.89, 0.89, 0.89, 0.89, 0.89, 0.89, 0.89, 0.89, 0.89, 0.89, 0.89, 0.89, 0.89, 0.89, 0.89, 0.89, 1.34, 1.2, 1.2, 1.6, 1.6, 1.26, 1.26, 1.26, 1.26, 1.58, 1.58, 1.24, 1.24, 1.24, 1.49, 1.2, 1.88, 1.61, 1.84, 1.84, 1.61, 1.88, 1.61, 1.88, 1.16, 1.16, 1.16, 0.61, 0.51, 0.59, 1.13, 1.13, 1.13, 1.13, 1.8, 2.23, 2.53, 2.17, 1.79, 3.13, 2.68, 2.24, 1.58, 1.58, 1.2, 2.98, 4.57, 6.02, 7.42, 8.8, 9.7, 10.7, 10.73, 10.28, 9.35, 6.02, 1.2, -2.53, -3.6, -3.6, -2.98, -2.21, -2.21, -2.21, 3.53, 3.53, 3.53, 3.07, 3.07, 2.63, 2.6, 2.24, 2.24, 2.24, 1.79, 1.79, 1.34, 1.34, 1.34, 1.34, 0.89, 0.89, 0.89, 0.89, 0.89, 0.89, 0.89, 0.89, 0.89, 0.89, 0.89, 0.89, 0.89, 0.89, 0.89, 0.89, 0.89, 0.89, 1.34, 1.2, 1.2, 1.6, 1.6, 1.26, 1.26, 1.26, 1.26, 1.58, 1.58, 1.24, 1.24, 1.24, 1.49, 1.2, 1.88, 1.61, 1.84, 1.84, 1.61, 1.88, 1.61, 1.88, 1.16, 1.16, 1.16, 0.61, 0.51, 0.59, 1.13, 1.13, 1.13, 1.13, 1.8, 2.23, 2.53, 2.17, 1.79, 3.13, 2.68, 2.24, 1.58, 1.58, 1.2, 2.98, 4.57, 6.02, 7.37, 8.45, 9.35, 10.28, 10.73, 10.73, 10.28, 9.83, 8.49, 5.73, 3.35, 1.98, 1.13, 1.98, 1.98, 1.98]}, {"header": {"dx": 0.06612293990616946, "dy": 0.0552356325346848, "nx": 98, "ny": 59, "la1": 35.046912555036876, "la2": 31.78801023549047, "lo1": -121.43107172385933, "lo2": -114.95102361305473, "refTime": "2026041016", "parameterCategory": 1, "parameterNumber": 3}, "data": [3.07, 2.79, 3.14, 2.51, 1.8, 2.23, 3.53, 4.44, 4.6, 4.6, 4.34, 3.53, 3.9, 2.98, 2.97, 2.97, 3.13, 3.13, 3.58, 3.6, 4.66, 4.46, 3.93, 3.48, 2.95, 2.95, 2.0, 2.23, 2.53, 1.4, 0.0, -2.24, -3.39, -3.39, -2.97, -2.68, -2.68, -2.24, -1.79, -1.79, 0.0, 0.0, 0.0, 0.0, 0.0, 0.0, 0.95, 2.64, 4.42, 6.01, 7.06, 7.35, 7.27, 6.83, 6.7, 6.7, 6.57, 5.63, 5.63, 5.0, 4.8, 4.8, 4.25, 4.07, 4.25, 3.95, 4.13, 3.85, 3.91, 3.96, 3.32, 3.29, 2.41, 2.51, 1.63, 1.56, 0.0, 0.0, -0.85, -1.63, -1.84, -2.76, -3.48, -3.93, -4.4, -3.84, -3.63, -3.55, -3.45, -4.13, -5.72, -6.56, -6.56, -5.72, -4.87, -4.13, -3.36, -2.69, 3.07, 2.79, 3.14, 2.51, 1.8, 2.23, 3.53, 4.88, 5.02, 4.6, 4.34, 4.92, 3.47, 2.97, 2.8, 2.8, 2.68, 3.58, 4.02, 3.47, 5.09, 5.2, 6.0, 5.36, 4.19, 3.79, 2.68, 0.99, 1.0, 1.9, 2.21, 1.4, 0.0, -2.97, -4.02, -3.58, -3.13, -2.68, -2.68, -2.24, 0.0, 0.0, 0.0, 0.98, 0.88, 1.98, 3.72, 4.58, 5.69, 6.73, 6.64, 6.53, 6.42, 5.78, 5.78, 5.52, 5.76, 5.63, 5.0, 5.0, 4.8, 3.95, 4.25, 4.25, 4.25, 4.07, 4.25, 4.13, 4.01, 4.06, 3.11, 2.44, 1.63, 1.63, 0.82, 0.0, 0.0, 0.0, -0.85, -1.63, -1.84, -2.76, -3.48, -3.93, -4.4, -3.84, -3.63, -3.55, -3.45, -4.13, -5.72, -6.56, -6.56, -5.72, -4.87, -4.13, -3.36, -2.69, 3.07, 2.79, 2.79, 2.23, 1.84, 2.23, 3.39, 4.88, 4.6, 4.4, 4.11, 3.54, 3.58, 2.54, 2.4, 2.4, 2.97, 3.13, 3.58, 4.66, 4.0, 4.84, 5.6, 6.52, 6.9, 4.43, 3.48, 1.4, 0.0, 2.24, 3.9, 4.57, 4.6, 1.7, -0.99, -4.47, -3.58, -3.39, -3.13, 0.0, 2.0, 2.21, 2.68, 2.53, 2.76, 3.22, 4.29, 5.06, 5.24, 5.59, 6.18, 6.04, 5.64, 5.64, 5.04, 5.06, 4.92, 4.8, 5.0, 4.68, 5.0, 4.13, 3.95, 4.25, 4.07, 4.07, 4.07, 4.13, 4.01, 4.06, 3.11, 2.44, 0.82, 0.0, 0.0, 0.0, 0.0, -0.78, -1.49, -2.64, -3.63, -3.79, -4.29, -4.57, -4.85, -4.66, -4.46, -4.58, -5.21, -6.33, -7.49, -7.25, -7.12, -6.45, -5.0, -3.39, -2.39, -2.57, 3.07, 2.79, 2.79, 2.53, 2.23, 2.23, 3.2, 4.47, 4.6, 4.27, 3.7, 3.53, 3.58, 2.68, 2.97, 2.97, 3.39, 3.58, 3.47, 4.0, 4.0, 5.09, 4.84, 5.21, 5.49, 5.37, 4.54, 2.84, 2.4, 3.13, 4.47, 5.29, 6.02, 6.13, 4.11, 1.8, 0.0, 0.0, 0.0, 2.68, 3.58, 3.6, 3.48, 3.35, 3.63, 3.47, 4.01, 4.58, 4.95, 5.1, 5.21, 5.21, 4.83, 4.83, 5.06, 4.4, 4.25, 4.13, 4.13, 4.13, 4.13, 4.13, 4.71, 5.06, 5.06, 5.06, 4.92, 4.87, 5.2, 5.1, 4.81, 3.32, 0.79, 0.0, -1.54, -1.62, -1.62, -1.68, -2.54, -3.72, -4.46, -4.54, -4.6, -4.82, -5.36, -5.36, -5.2, -6.11, -7.48, -8.05, -8.31, -7.38, -7.36, -5.76, -4.25, -3.11, -2.6, -2.49, 3.07, 3.07, 2.79, 2.53, 2.23, 2.23, 3.07, 4.47, 4.77, 4.11, 3.6, 3.07, 3.13, 3.13, 3.13, 3.47, 3.47, 3.13, 3.58, 4.34, 5.64, 5.64, 5.64, 5.6, 4.98, 6.4, 6.4, 5.6, 5.51, 4.38, 4.82, 4.38, 4.57, 5.2, 6.52, 5.72, 4.74, 4.43, 3.39, 4.47, 4.92, 4.98, 4.54, 3.91, 3.47, 4.29, 5.06, 5.37, 5.24, 4.83, 4.5, 4.12, 4.12, 4.34, 4.2, 4.07, 3.36, 3.25, 4.13, 3.39, 3.25, 4.2, 4.96, 5.89, 6.53, 6.42, 6.42, 6.31, 6.45, 7.38, 6.52, 5.67, 3.53, 0.82, -0.85, -2.99, -3.15, -2.54, -2.8, -4.46, -5.75, -6.02, -5.51, -5.81, -6.2, -6.26, -6.57, -7.35, -9.17, -8.95, -7.9, -6.57, -6.7, -5.64, -4.34, -3.36, -3.29, -3.29, 3.07, 3.07, 2.79, 2.79, 2.23, 1.84, 2.79, 3.98, 4.44, 4.11, 3.82, 2.68, 2.68, 2.68, 3.13, 3.39, 3.39, 3.13, 3.13, 4.02, 4.47, 5.36, 6.71, 7.01, 7.01, 6.58, 7.06, 7.06, 6.64, 6.64, 4.6, 3.72, 3.35, 3.93, 4.84, 5.46, 5.06, 4.29, 4.0, 4.82, 5.81, 7.01, 6.21, 5.82, 5.49, 5.77, 6.11, 6.01, 4.83, 4.26, 3.4, 3.4, 3.6, 3.27, 3.32, 3.21, 2.47, 2.47, 2.49, 2.49, 3.32, 4.42, 5.77, 6.79, 7.35, 7.9, 7.48, 6.7, 6.57, 7.12, 7.25, 7.36, 7.01, 5.67, 1.63, -0.8, -3.55, -2.8, -2.95, -5.2, -7.1, -7.42, -7.1, -7.15, -7.6, -8.45, -8.95, -9.0, -8.85, -8.22, -7.18, -6.42, -6.53, -5.24, -4.26, -4.07, -4.06, -4.06, 3.07, 3.07, 2.79, 2.79, 2.53, 1.84, 2.53, 3.82, 4.47, 4.34, 3.87, 3.13, 3.13, 2.24, 3.13, 2.97, 2.97, 2.4, 2.68, 2.68, 3.13, 4.02, 4.92, 5.73, 6.58, 6.58, 6.58, 6.64, 6.64, 5.21, 5.36, 4.6, 4.22, 4.6, 4.84, 5.82, 5.49, 5.31, 5.6, 5.09, 6.58, 6.71, 7.45, 7.6, 7.44, 6.79, 7.41, 6.64, 5.59, 4.71, 4.46, 3.4, 3.27, 2.54, 1.67, 1.6, 0.81, 0.81, 0.85, 1.67, 3.47, 4.98, 6.21, 7.82, 8.42, 8.6, 8.12, 6.57, 5.76, 5.51, 5.6, 5.67, 5.9, 5.51, 4.04, 0.86, -1.63, -3.48, -3.93, -5.6, -7.85, -8.77, -8.77, -8.9, -9.8, -10.05, -10.0, -8.65, -7.59, -6.18, -6.01, -6.01, -4.95, -4.74, -4.42, -4.92, -4.75, -5.06, 3.07, 3.6, 2.79, 2.79, 2.53, 1.84, 2.53, 3.39, 4.02, 4.3, 3.87, 3.53, 4.02, 3.58, 3.58, 2.4, 2.0, 1.58, 1.34, 1.26, 1.9, 2.0, 3.58, 4.47, 4.38, 5.09, 5.09, 5.51, 5.21, 4.43, 6.0, 6.58, 7.01, 6.64, 5.21, 4.84, 4.11, 4.58, 5.72, 6.26, 6.07, 6.07, 5.81, 6.58, 7.06, 7.81, 7.41, 7.35, 6.64, 6.01, 4.83, 4.12, 3.45, 2.44, 1.67, 0.81, 0.0, 0.0, 0.0, 0.88, 3.35, 5.29, 6.94, 7.89, 8.06, 7.9, 7.12, 5.72, 4.01, 3.29, 2.44, 2.37, 1.66, 1.58, 1.63, 1.38, 0.0, -2.8, -4.54, -5.58, -6.0, -8.19, -8.19, -8.67, -9.58, -10.1, -8.88, -7.35, -5.1, -2.64, -3.22, -3.72, -4.19, -4.54, -5.69, -6.15, -5.72, -5.51, 3.07, 3.07, 2.79, 2.79, 2.53, 1.84, 1.84, 3.07, 4.02, 3.87, 3.7, 3.82, 5.36, 4.47, 3.58, 3.13, 2.68, 2.24, 1.79, 2.24, 2.53, 3.58, 3.58, 4.02, 4.02, 4.47, 4.47, 4.0, 3.79, 4.84, 5.51, 6.26, 6.07, 6.0, 4.54, 3.63, 3.22, 5.6, 6.07, 6.26, 5.64, 5.09, 4.92, 5.09, 6.0, 6.21, 7.81, 8.73, 7.97, 7.27, 6.4, 4.96, 4.83, 4.0, 2.57, 1.6, 0.8, 0.0, 0.0, 0.0, 3.58, 6.64, 7.42, 7.76, 7.41, 6.7, 6.21, 4.81, 2.53, 0.0, 0.0, -1.5, -1.57, -1.4, -0.7, 0.0, 0.0, -0.8, -3.55, -4.84, -4.82, -6.28, -6.0, -6.94, -7.47, -7.6, -6.7, -4.83, -2.2, 0.0, 0.0, -2.21, -4.38, -5.75, -6.01, -6.31, -6.33, -6.0, 3.07, 3.07, 2.79, 2.79, 2.53, 2.53, 1.84, 2.53, 3.53, 4.02, 3.6, 3.2, 2.68, 2.63, 3.58, 3.13, 2.68, 2.68, 3.13, 3.13, 3.58, 4.02, 4.47, 4.92, 4.92, 4.47, 4.47, 4.0, 3.16, 3.48, 4.66, 5.36, 5.36, 5.09, 4.11, 4.43, 4.46, 4.92, 5.81, 5.36, 3.9, 3.58, 3.58, 3.9, 4.98, 6.16, 5.82, 6.01, 6.95, 6.83, 6.53, 6.53, 6.24, 5.76, 4.96, 4.12, 3.55, 0.0, -2.4, -0.0, 5.36, 8.33, 9.54, 8.0, 7.41, 5.9, 5.6, 4.31, 2.1, -0.83, -3.19, -4.32, -4.39, -4.31, -2.93, -1.45, -0.81, -0.84, -1.52, -3.48, -3.58, -3.58, -4.22, -4.19, -3.79, -4.11, -2.88, -1.6, 0.0, 0.79, 0.0, -2.4, -5.73, -7.12, -7.41, -7.08, -6.45, -6.04, 3.07, 3.07, 2.79, 2.79, 2.79, 2.53, 2.23, 2.53, 3.32, 3.58, 3.39, 3.07, 2.68, 2.4, 2.97, 2.68, 2.68, 1.79, 1.79, 1.79, 2.8, 3.58, 3.58, 3.58, 4.47, 4.47, 4.47, 4.47, 3.6, 3.6, 4.47, 4.02, 4.02, 3.58, 2.98, 3.79, 5.09, 5.36, 3.9, 3.58, 3.13, 3.13, 3.58, 4.92, 6.07, 6.16, 5.82, 5.06, 5.24, 6.01, 8.06, 9.05, 9.05, 9.05, 8.43, 8.06, 7.81, 3.35, -2.68, 2.24, 8.49, 10.6, 9.75, 8.63, 8.03, 7.18, 6.7, 5.72, 4.13, 0.81, -0.89, -4.37, -6.05, -5.18, -3.61, -2.18, -0.76, 0.0, 0.0, 0.0, -2.54, -3.2, -3.13, -2.98, -1.6, -0.79, -0.81, -0.81, 0.0, 0.0, -0.99, -3.35, -6.02, -7.63, -7.76, -7.48, -6.7, -4.42, 2.68, 3.07, 2.79, 2.79, 2.79, 2.53, 2.23, 2.23, 2.68, 3.53, 3.53, 2.97, 2.91, 2.4, 1.86, 1.86, 1.7, 1.7, 1.79, 1.7, 1.86, 1.86, 2.4, 3.6, 4.02, 4.02, 4.02, 2.68, 4.02, 4.02, 3.58, 3.13, 3.58, 3.58, 3.13, 3.13, 2.68, 3.13, 3.13, 3.13, 3.13, 3.13, 4.02, 5.81, 6.71, 6.65, 7.94, 7.63, 8.06, 8.6, 9.24, 10.68, 11.61, 12.09, 11.61, 10.95, 11.2, 7.35, 0.98, 6.26, 11.59, 11.84, 10.68, 9.9, 10.15, 11.2, 11.83, 11.26, 9.67, 8.42, 6.08, 0.0, -5.34, -5.82, -3.63, -0.99, 0.0, 1.79, 1.79, 1.6, -1.2, -2.98, -3.39, -2.97, -2.21, -1.8, -1.55, -1.7, -1.55, -1.83, -2.41, -2.68, -4.46, -6.8, -7.35, -6.7, -4.96, -2.99, 2.91, 3.07, 2.79, 2.79, 2.79, 2.53, 2.53, 1.84, 2.21, 3.09, 3.58, 3.09, 2.63, 2.6, 2.17, 1.86, 1.49, 1.7, 1.34, 1.34, 1.6, 1.58, 1.86, 1.86, 1.7, 1.79, 2.12, 2.6, 2.68, 2.68, 2.68, 2.68, 2.97, 3.39, 3.39, 2.97, 2.4, 2.68, 2.68, 3.13, 3.58, 4.02, 4.82, 6.02, 7.01, 7.6, 8.05, 8.05, 8.41, 8.85, 7.92, 8.46, 8.94, 9.36, 10.66, 10.91, 11.44, 10.36, 5.1, 8.94, 12.52, 12.27, 11.18, 10.93, 12.42, 13.21, 14.47, 15.31, 14.21, 13.35, 11.88, 7.42, -2.68, -4.57, -2.97, -0.0, -0.0, -0.0, 1.0, 0.8, -0.0, -1.4, -2.97, -3.39, -3.58, -2.84, -3.48, -3.07, -3.35, -2.98, -3.07, -2.68, -3.07, -5.06, -6.64, -5.76, -3.4, -1.99, 2.91, 2.68, 2.79, 2.79, 2.79, 2.79, 2.53, 1.84, 2.53, 2.91, 3.13, 3.13, 2.68, 2.24, 2.24, 2.12, 1.7, 1.7, 1.34, 1.34, 1.2, 0.95, 1.26, 1.26, 1.2, 1.34, 1.2, 1.7, 2.12, 2.17, 1.7, 2.68, 3.2, 2.4, 2.4, 2.4, 1.58, 2.24, 2.24, 2.68, 3.58, 4.34, 5.64, 5.6, 6.58, 6.58, 6.2, 7.15, 7.15, 7.6, 7.6, 7.15, 6.51, 6.07, 5.81, 4.38, 5.72, 6.16, 7.24, 9.36, 11.15, 12.07, 12.47, 12.96, 12.07, 12.07, 12.07, 11.6, 12.08, 10.66, 10.24, 8.12, 2.0, -3.16, -2.95, -2.23, -1.98, -0.99, -1.2, -0.0, -0.0, -1.58, -2.0, -2.0, -3.13, -2.97, -3.9, -4.15, -3.83, -3.84, -3.07, -3.07, -3.07, -4.29, -4.22, -3.91, -2.82, -1.99, 2.91, 2.68, 3.07, 2.79, 2.79, 2.79, 2.23, 1.84, 1.84, 2.5, 3.09, 3.13, 2.68, 2.24, 2.24, 2.24, 1.79, 1.6, 1.2, 1.34, 1.2, 1.2, 0.6, 0.95, 0.89, 0.89, 0.63, 0.95, 1.34, 1.34, 1.34, 1.34, 2.68, 2.68, 2.68, 2.68, 0.0, 0.0, 0.0, 2.24, 3.13, 4.66, 4.09, 4.46, 5.2, 6.07, 6.14, 6.07, 6.07, 6.26, 6.07, 5.09, 5.09, 4.4, 4.47, 4.02, 2.0, 2.26, 6.14, 9.76, 8.33, 8.38, 8.94, 8.94, 9.83, 9.83, 9.39, 8.38, 7.28, 6.95, 6.42, 5.0, 1.73, -2.4, -0.96, -0.0, 0.0, 0.0, -1.79, -2.4, -1.9, -1.58, -1.26, -1.34, 0.0, -1.79, -2.24, -3.58, -3.58, -4.0, -4.19, -4.19, -3.79, -3.72, -3.33, -2.82, -2.6, -2.6, 2.91, 2.68, 2.68, 2.53, 2.79, 2.79, 2.23, 1.84, 1.84, 2.21, 2.91, 3.13, 2.24, 1.79, 1.79, 1.79, 1.79, 1.79, 1.2, 1.34, 1.34, 1.2, 0.6, 0.95, 0.89, 0.89, 0.63, 0.89, 0.0, 0.0, 0.0, 0.0, 0.89, 2.24, 2.24, 1.79, 0.0, 0.0, 0.0, 2.68, 2.97, 3.9, 4.24, 4.46, 4.46, 5.64, 5.64, 5.64, 5.2, 5.2, 5.09, 4.66, 4.66, 4.47, 4.47, 4.47, 3.6, 4.0, 5.6, 6.71, 4.98, 5.09, 4.66, 4.92, 5.36, 5.81, 4.47, 6.0, 6.28, 5.59, 3.45, 1.54, 0.0, 0.0, 3.35, 6.02, 6.11, 4.83, 2.8, 0.0, -2.24, -2.21, -1.2, -0.0, 0.0, 0.0, 0.0, -2.68, -4.02, -4.34, -4.6, -4.8, -4.19, -3.72, -3.64, -3.33, -3.22, -3.22, 2.91, 2.91, 2.68, 2.21, 2.53, 2.53, 2.23, 1.8, 1.6, 2.23, 2.91, 3.07, 2.17, 1.7, 1.7, 1.79, 1.79, 1.79, 1.34, 0.89, 0.89, 0.95, 1.2, 0.95, 0.89, 0.45, -0.0, 0.0, 0.0, 0.0, 0.0, 0.0, 0.0, 0.0, 0.0, 1.26, 1.58, 0.0, 0.0, 3.13, 3.6, 3.9, 4.66, 3.9, 4.66, 4.66, 4.66, 4.92, 4.92, 4.92, 4.92, 4.47, 4.47, 4.02, 4.02, 4.02, 4.47, 4.47, 4.0, 4.02, 3.6, 3.6, 3.58, 3.58, 4.02, 2.97, 4.0, 4.4, 4.74, 4.0, 1.28, 0.0, 0.0, 3.79, 7.21, 9.6, 10.01, 9.48, 7.38, 4.8, 0.95, -2.4, -2.21, -1.0, -0.0, 0.0, 0.0, -3.58, -4.02, -4.57, -4.66, -5.16, -5.34, -4.81, -5.15, -4.43, -4.43, -4.43, 2.91, 2.91, 2.68, 2.5, 2.21, 2.53, 2.23, 2.51, 2.51, 2.23, 2.68, 2.91, 2.4, 2.12, 1.7, 1.7, 1.79, 1.79, 1.34, 0.89, 0.45, 0.89, 1.2, 1.2, 0.89, -0.0, -0.0, -0.0, 0.0, 0.0, -0.45, -0.89, -0.89, 0.0, 0.0, 0.0, 1.26, 2.21, 3.58, 4.02, 4.92, 4.66, 4.0, 3.6, 4.02, 3.58, 3.58, 3.58, 4.02, 4.02, 4.47, 4.47, 4.47, 4.02, 3.58, 3.2, 3.6, 3.58, 3.13, 3.13, 3.13, 2.68, 2.68, 3.13, 4.02, 3.39, 2.98, 0.0, 0.0, 0.0, 0.0, 0.82, 3.39, 5.76, 7.9, 8.31, 8.12, 8.05, 7.82, 6.52, 4.87, 0.89, -2.4, -0.0, -0.0, -0.0, -1.58, -2.68, -3.58, -3.9, -4.38, -5.29, -6.07, -6.0, -5.82, -5.58, -5.09, -5.09, 2.63, 2.91, 2.8, 2.5, 2.5, 2.21, 2.53, 2.23, 2.23, 2.79, 3.07, 2.5, 2.15, 2.23, 1.86, 2.4, 1.79, 1.79, 1.34, 0.89, 0.45, 0.89, 1.34, 2.0, 1.79, 2.24, 0.95, -0.0, -0.0, -0.0, 0.0, -0.89, -0.89, -0.89, -0.89, 0.0, 0.0, 1.24, 3.39, 4.47, 3.58, 3.58, 3.58, 3.13, 2.68, 2.68, 2.68, 2.68, 3.13, 3.58, 3.58, 4.02, 4.02, 4.02, 4.02, 3.13, 2.68, 2.68, 0.0, 0.0, 2.68, 2.68, 2.68, 2.68, 3.58, 4.02, 3.9, 0.99, -0.88, 0.0, 1.2, 4.04, 5.72, 6.24, 4.87, 3.29, 1.56, 0.83, 1.61, 2.39, 2.47, 0.0, -1.58, -0.76, -0.0, -0.0, -0.0, -0.95, -2.68, -2.24, -3.58, -4.82, -6.45, -6.28, -6.16, -6.16, -6.57, -6.57, 2.63, 2.4, 2.8, 2.5, 2.5, 2.21, 2.21, 2.21, 2.53, 2.79, 2.79, 2.5, 2.5, 1.9, 1.9, 1.86, 2.17, 2.17, 2.4, 1.79, 1.34, 1.2, 1.79, 2.24, 2.68, 2.68, 2.24, 1.34, 0.95, -0.0, -0.0, -0.0, -0.63, -0.89, -0.89, -0.95, 0.0, 0.71, 1.24, 1.86, 2.17, 2.24, 1.79, 1.2, 1.2, 2.24, 2.24, 2.24, 2.68, 3.13, 3.13, 3.58, 4.02, 4.02, 3.13, 2.68, 2.68, 0.0, 0.0, 0.0, 0.0, 2.68, 3.13, 3.6, 3.9, 4.02, 4.02, 2.98, 1.7, 2.54, 3.29, 4.81, 4.82, 3.22, 0.79, -2.35, -4.81, -5.8, -2.37, -0.8, 0.0, 0.84, 0.0, -0.0, -0.0, -0.0, -0.0, -0.0, -1.34, -1.26, -2.4, -3.82, -5.73, -6.65, -6.28, -6.7, -6.7, -6.7, 2.6, 2.4, 2.4, 2.15, 2.5, 2.5, 2.5, 2.5, 2.5, 2.53, 2.53, 2.21, 2.21, 1.88, 1.9, 2.23, 2.12, 2.12, 2.12, 2.4, 2.24, 1.79, 1.7, 1.79, 1.79, 2.17, 2.12, 1.7, 1.34, 0.89, 0.0, -0.0, -0.0, -0.89, -0.89, -1.34, -0.6, 0.0, 0.0, 0.57, 1.58, 1.26, 1.26, 0.8, 1.26, 1.9, 2.24, 2.24, 2.24, 2.24, 2.68, 3.13, 3.58, 3.58, 3.58, 2.8, 1.58, 0.0, -2.24, 0.0, 0.0, -0.0, 2.53, 2.53, 2.8, 3.13, 3.13, 3.82, 4.11, 4.42, 4.92, 4.87, 4.79, 0.79, -2.45, -5.51, -10.12, -9.4, -7.12, -4.17, -1.69, 0.0, 0.0, 0.0, -1.2, -1.2, -1.58, 0.0, 0.0, -1.0, -0.99, -1.4, -3.39, -5.36, -6.51, -6.28, -6.51, -6.51, 2.6, 2.4, 2.4, 2.4, 2.15, 2.5, 2.5, 2.5, 2.15, 2.21, 2.21, 2.21, 1.88, 1.88, 1.88, 1.9, 2.23, 2.12, 2.12, 2.12, 2.24, 1.79, 1.7, 1.6, 1.34, 1.79, 1.7, 1.26, 1.26, 0.95, 0.63, 0.0, 0.0, 0.0, -0.89, -0.89, -0.63, -0.6, 0.0, 0.0, 0.0, 0.8, 0.8, 0.8, 0.8, 0.8, 0.0, 0.0, 0.0, 2.24, 2.68, 2.68, 3.13, 3.13, 3.2, 2.84, 2.21, 0.0, -2.21, -2.21, -1.26, -0.0, 1.4, 1.2, 2.4, 2.68, 2.68, 3.39, 3.58, 5.36, 6.32, 8.54, 7.23, 3.07, -4.84, -7.95, -10.79, -11.79, -10.19, -7.44, -4.07, -0.8, 0.0, 0.0, 0.0, -1.58, -2.24, 0.0, 0.0, -1.58, -1.2, 0.0, -1.26, -3.58, -5.31, -5.59, -6.45, -6.45, 2.6, 2.6, 2.4, 2.4, 2.4, 2.15, 2.5, 2.5, 2.15, 1.9, 1.88, 1.88, 1.88, 1.88, 1.88, 1.88, 2.15, 1.86, 1.86, 2.12, 2.24, 1.79, 1.7, 1.2, 1.34, 0.89, 0.95, 0.6, 0.8, 0.8, 0.6, 0.0, 0.0, 0.0, 0.0, -0.89, -0.63, 0.0, 0.0, 0.0, 0.0, 0.0, 0.8, 0.8, 0.57, 0.8, 0.0, 0.0, 0.0, 2.24, 2.24, 2.68, 2.68, 2.68, 3.58, 3.6, 2.98, 1.58, -3.13, -2.97, -2.4, -0.0, 1.2, 1.9, 2.68, 2.68, 3.13, 2.8, 2.53, 3.35, 4.84, 6.28, 4.2, 1.9, -1.23, -5.31, -8.67, -10.53, -10.73, -9.19, -5.94, -2.67, 0.0, 0.0, 0.0, 0.0, 0.0, 0.0, 2.24, 0.99, 0.0, 0.0, 0.0, -1.26, -3.47, -5.16, -6.02, -6.02, 2.17, 2.17, 2.4, 2.4, 2.23, 2.4, 2.4, 2.15, 2.15, 1.9, 1.88, 1.88, 1.88, 1.88, 1.88, 1.88, 2.5, 2.15, 2.0, 2.12, 1.7, 1.79, 1.79, 1.34, 1.34, 0.89, 0.89, 0.95, 0.6, 0.8, 0.0, 0.0, 0.0, 0.0, 0.0, 0.0, 0.0, 0.0, 0.0, 0.0, 0.0, 0.0, 0.8, 0.8, 0.57, 0.57, 0.0, 0.0, 0.0, 2.24, 2.24, 2.24, 2.68, 2.68, 3.13, 3.6, 3.35, 2.98, 0.0, -3.13, -2.4, -0.0, 1.2, 2.4, 3.13, 3.13, 2.97, 2.53, 0.99, 1.13, 0.0, 0.0, 0.79, 1.56, 0.0, -3.16, -5.64, -7.97, -9.21, -8.24, -6.7, -3.79, -1.52, 0.0, 0.0, 0.95, 0.96, 1.13, 2.68, 2.8, -0.0, -1.26, 0.0, -0.95, -2.97, -4.66, -5.34, -5.34, 2.12, 2.12, 1.86, 1.86, 2.23, 1.86, 1.86, 1.9, 1.9, 1.9, 1.9, 1.88, 1.88, 1.88, 1.88, 1.88, 2.21, 2.15, 2.4, 1.86, 1.7, 1.79, 1.79, 1.34, 1.34, 0.89, 0.89, 0.63, 0.6, 0.0, 0.0, 0.0, 0.0, 0.0, 0.0, 0.0, 0.0, 0.0, 0.0, 0.0, 0.0, 0.57, 0.57, 0.57, 0.57, 0.0, 0.0, 0.57, 0.57, 0.8, 0.8, 1.58, 2.24, 2.24, 1.9, 3.2, 3.6, 3.82, 4.0, 2.53, 0.0, -0.0, -0.0, 2.8, 3.58, 3.58, 3.39, 2.53, 1.4, 0.0, -1.84, -1.68, 0.0, 3.22, 3.13, 0.82, -0.87, -4.47, -6.58, -7.21, -6.64, -5.06, -3.0, -1.45, 0.0, 0.0, 0.0, 1.05, 2.53, 1.9, 1.9, -1.0, -2.0, -2.24, -2.97, -4.15, -4.8, -4.8, 2.12, 2.12, 1.86, 1.86, 1.86, 1.86, 1.86, 1.58, 1.9, 1.9, 1.9, 1.9, 1.61, 1.61, 1.88, 1.88, 2.21, 2.15, 2.4, 1.86, 1.7, 1.79, 1.79, 1.79, 1.34, 1.34, 0.89, 0.0, 0.0, 0.0, 0.0, 0.0, 0.0, 0.0, 0.0, 0.0, 0.0, 0.0, 0.0, 0.0, 0.57, 0.71, 0.71, 0.71, 0.71, 0.0, 0.0, 0.0, 0.0, 0.0, 0.0, 0.0, 0.0, 1.58, 1.9, 2.8, 3.58, 4.02, 3.6, 3.48, 2.84, 0.0, -0.0, 2.8, 3.58, 3.58, 3.39, 2.98, 0.0, -1.13, -1.99, -2.58, 0.0, 2.3, 4.75, 5.56, 2.21, -3.16, -5.36, -6.65, -6.7, -5.72, -4.36, -1.52, 0.0, 0.0, 0.83, 1.84, 1.83, 1.8, 0.96, 0.0, -2.4, -2.68, -3.04, -4.0, -4.22, -4.22, 2.12, 2.12, 1.86, 1.86, 1.86, 1.86, 1.86, 1.86, 1.58, 1.9, 1.9, 1.9, 1.9, 1.61, 1.61, 1.88, 2.5, 2.15, 2.4, 2.4, 2.12, 2.24, 2.24, 1.79, 1.34, 1.34, 0.89, 0.0, 0.0, 0.0, 0.6, 0.6, 0.6, 0.8, 0.0, 0.0, 0.0, 0.0, 0.0, 0.0, 0.0, 0.57, 0.71, 0.54, 0.54, 0.65, 0.0, 0.0, 0.0, 0.0, 0.0, 0.0, 0.0, 0.0, 1.58, 2.0, 3.13, 3.58, 3.39, 3.35, 3.48, 2.21, 3.13, 2.97, 3.58, 3.13, 2.8, 2.21, 1.4, 0.0, -1.7, -1.84, -0.82, 0.8, 4.0, 6.35, 5.06, -1.26, -4.6, -6.26, -6.45, -5.43, -2.68, 0.76, 1.6, 2.68, 2.76, 2.76, 1.05, 0.0, 0.0, 0.0, -2.24, -3.39, -3.13, -3.9, -4.22, -4.22, 1.7, 1.7, 1.7, 1.86, 1.86, 1.86, 1.86, 1.58, 1.58, 1.9, 1.9, 1.9, 1.49, 1.9, 1.9, 1.9, 2.15, 2.15, 2.4, 2.4, 2.6, 2.68, 2.24, 1.79, 1.34, 0.89, 0.89, 0.63, 0.63, 0.63, 0.95, 0.95, 0.6, 0.8, 0.0, 0.0, 0.0, 0.0, 0.0, 0.8, 0.8, 0.57, 0.71, 0.54, 0.54, 0.54, 0.0, 0.0, 0.0, 0.0, 0.0, 0.0, -0.57, 0.0, 0.0, 1.26, 2.68, 3.58, 3.39, 2.98, 2.53, 2.53, 2.8, 3.13, 2.68, 3.13, 1.2, 0.0, 0.0, 0.0, -0.96, -1.65, -2.57, -1.68, 0.0, 0.0, 0.82, -2.24, -3.63, -4.92, -5.29, -1.2, 1.34, 4.02, 3.58, 3.58, 3.51, 3.16, 0.96, 0.0, 0.0, 0.0, 0.0, -2.24, -2.97, -3.58, -4.15, -4.15, 1.7, 1.7, 1.7, 1.86, 1.86, 1.86, 1.86, 1.58, 1.58, 1.58, 1.9, 1.9, 1.61, 1.9, 1.9, 2.15, 2.4, 2.4, 2.4, 2.4, 2.63, 2.6, 2.24, 1.79, 1.34, 0.95, 0.63, 0.95, 1.2, 1.2, 0.95, 0.95, 0.6, 0.8, 0.57, 0.0, 0.0, 0.71, 0.57, 0.57, 0.8, 0.57, 0.57, 1.2, 0.85, 0.54, 0.0, -0.71, -0.71, -0.65, -0.54, -0.71, -0.71, -0.57, -0.8, 0.0, 0.0, 3.13, 3.39, 3.82, 3.39, 2.4, 2.68, 2.68, 2.68, 2.21, 0.0, 0.0, -1.4, -0.98, -0.82, -1.67, -2.59, -5.14, -7.12, -7.82, -5.6, -4.0, -2.95, -4.34, -3.58, 0.45, 2.63, 2.63, 3.58, 3.13, 3.58, 3.58, 1.98, 1.8, 2.0, 0.96, 0.81, 0.0, -2.24, -2.68, -3.47, -3.47, 1.7, 1.7, 1.7, 1.49, 1.86, 1.86, 1.86, 1.58, 1.58, 1.58, 1.58, 1.9, 1.61, 1.9, 1.9, 2.15, 2.4, 2.4, 2.4, 2.6, 2.6, 2.17, 1.7, 1.6, 1.2, 0.95, 0.95, 1.2, 1.2, 0.95, 0.63, 0.95, 0.6, 0.8, 0.57, 0.71, 0.71, 0.71, 0.57, 0.57, 0.57, 0.57, 0.57, 0.57, 0.71, 0.0, 0.0, -0.6, -0.6, -0.8, -1.26, -1.58, -1.24, -1.26, -1.26, -0.57, 0.0, 0.8, 3.39, 3.58, 3.13, 2.4, 2.24, 1.79, 2.4, 2.21, 1.13, 0.0, -2.53, -3.16, -2.8, -1.67, -0.86, -3.23, -7.82, -10.43, -8.18, -4.2, -2.84, -3.39, -3.39, 0.45, 1.7, 1.58, 1.58, 2.6, 2.68, 2.54, 2.54, 2.68, 2.97, 1.98, 1.66, 0.0, 0.0, -0.85, -2.21, -2.21, 1.7, 1.7, 1.7, 1.49, 1.86, 1.86, 1.86, 1.58, 1.58, 1.58, 1.58, 1.9, 1.61, 2.21, 2.5, 2.15, 2.4, 2.4, 2.17, 2.17, 2.12, 1.6, 1.6, 1.6, 1.2, 1.2, 1.2, 1.2, 0.95, 0.63, 0.63, 0.63, 0.95, 0.6, 0.57, 0.57, 0.71, 0.71, 0.57, 0.57, 0.57, 0.57, 0.57, 0.0, 0.0, 0.0, 0.0, 0.0, -0.95, -0.6, -0.8, -1.26, -1.26, -1.58, -1.26, -1.24, -0.71, 0.0, 1.26, 3.13, 2.21, 1.2, -0.0, 1.79, 1.9, 1.4, 0.99, 0.0, -1.7, -3.47, -3.63, -2.64, 0.0, 0.0, -2.44, -7.93, -8.05, -4.68, -2.39, -2.51, -2.97, -1.58, 0.0, 0.6, 1.2, 1.0, 0.54, 1.79, 1.58, 1.9, 2.24, 2.0, 1.8, 0.76, 0.0, 0.0, 0.0, 0.0, 1.7, 1.7, 1.7, 1.49, 1.26, 1.58, 1.58, 1.86, 1.58, 1.58, 1.58, 1.9, 1.9, 2.5, 2.5, 2.5, 2.4, 2.4, 2.12, 2.12, 1.7, 1.6, 1.6, 1.6, 1.2, 1.2, 1.2, 1.2, 1.26, 0.63, 0.63, 0.63, 0.95, 0.6, 0.8, 0.57, 0.71, 0.71, 0.57, 0.57, 0.57, 0.57, 0.0, 0.0, 0.0, 0.0, 0.0, 0.0, 0.0, -0.57, -0.57, -0.57, -1.26, -1.26, -1.26, -1.24, -1.24, -0.71, 0.0, 1.34, 1.2, -0.0, 0.0, 1.26, 1.58, 1.2, 0.99, 0.0, 0.0, 0.0, -1.83, -1.83, -1.49, 0.0, 0.0, -3.2, -6.04, -5.24, -4.07, -2.95, -2.18, -1.9, -1.34, 0.0, 0.0, 0.51, 0.51, 0.0, 0.0, 0.0, 1.34, 1.79, 1.74, 1.55, 0.72, 0.78, 0.0, 0.0, 1.7, 1.7, 1.7, 1.26, 1.26, 1.26, 1.58, 1.86, 1.86, 1.58, 1.58, 1.9, 1.9, 1.9, 2.5, 2.5, 2.4, 2.4, 1.86, 1.86, 1.86, 1.26, 1.6, 1.6, 1.2, 1.2, 1.2, 1.2, 0.95, 1.26, 0.95, 0.95, 0.95, 0.6, 0.8, 0.57, 0.71, 0.71, 0.71, 0.57, 0.57, 0.57, 0.0, 0.0, 0.0, 0.0, 0.0, 0.0, -0.65, -0.65, -0.54, -0.71, -1.24, -1.24, -1.58, -1.58, -0.71, -0.54, 0.0, 0.0, 0.89, 1.79, 2.68, 1.58, 1.58, 1.58, 1.2, 0.0, 0.0, 0.0, 0.88, 0.0, -1.72, -3.29, -1.59, 0.0, -1.83, -3.13, -2.98, -2.23, -0.72, 0.0, 0.0, 0.0, 0.0, 0.0, 0.5, 0.57, 0.0, 0.0, 0.0, 0.0, 1.0, 0.88, 0.72, 0.83, 0.0, 0.0, 1.7, 1.7, 1.6, 1.26, 1.26, 1.26, 1.26, 1.58, 1.86, 1.86, 1.58, 1.58, 1.9, 1.9, 2.15, 2.15, 1.9, 2.23, 1.86, 1.86, 1.86, 1.26, 1.26, 1.6, 1.6, 1.2, 1.2, 0.95, 0.95, 1.2, 1.2, 0.95, 0.6, 0.6, 0.8, 0.57, 0.71, 0.71, 0.71, 0.71, 0.71, 0.0, 0.0, 0.0, 0.0, 0.0, -0.61, -0.61, -0.61, -0.61, -0.65, -1.2, -1.2, -1.24, -1.24, -1.58, -0.8, -0.57, -0.71, 0.0, 3.2, 3.58, 3.13, 2.68, 2.24, 2.24, 1.58, 1.2, 0.0, 1.41, 1.7, 0.0, -2.69, -5.72, -4.88, 0.0, 0.78, 0.0, -0.7, -0.78, 0.0, 0.0, 0.0, 0.0, 0.0, 0.0, 0.54, 0.49, 0.0, 0.0, -0.96, 0.0, 0.0, 0.0, 0.0, 0.79, 0.71, 0.71, 1.7, 1.7, 1.26, 1.26, 1.26, 1.26, 1.26, 1.58, 1.86, 1.86, 1.58, 1.58, 1.58, 1.9, 1.86, 2.23, 2.23, 1.86, 1.86, 1.86, 1.86, 1.26, 1.26, 1.26, 1.6, 1.2, 1.2, 0.95, 0.95, 0.95, 0.95, 0.6, 0.6, 0.6, 0.8, 0.8, 0.71, 0.71, 0.71, 0.71, 0.0, 0.0, 0.0, 0.0, 0.0, 0.0, -0.61, -0.61, -0.61, -1.16, -1.4, -1.2, -1.2, -1.49, -1.24, -1.58, -1.26, -0.6, 0.0, 0.0, 1.86, 3.58, 3.13, 2.68, 2.68, 2.68, 2.24, 1.58, 1.2, 1.13, 0.88, 0.0, -1.28, -3.23, -3.95, 0.0, 2.35, 1.6, 0.0, -1.6, -2.12, -0.73, 0.0, 0.0, 0.0, 0.0, 0.53, 0.0, 0.0, 0.0, -0.89, -0.82, -0.81, -0.81, 0.0, 0.0, 0.0, 0.0, 1.49, 1.49, 1.26, 1.26, 1.26, 1.26, 1.26, 1.26, 1.58, 1.58, 1.86, 1.86, 1.86, 1.86, 1.86, 1.86, 1.86, 1.86, 1.86, 1.86, 1.86, 1.26, 1.26, 1.26, 1.6, 1.2, 1.2, 0.95, 0.95, 0.95, 0.95, 0.6, 0.6, 0.8, 0.8, 0.8, 0.57, 0.71, 0.71, 0.71, 0.0, 0.0, 0.0, 0.0, 0.0, -0.61, -0.61, -0.61, -1.16, -1.16, -1.4, -1.2, -1.2, -1.49, -1.58, -1.58, -1.26, -1.2, -0.6, 0.0, 0.0, 1.79, 3.13, 2.24, 2.24, 2.68, 1.58, 1.58, 1.58, 1.4, 0.0, 0.0, 0.0, 0.0, -0.76, 0.0, 0.76, 1.58, 0.0, -2.13, -3.69, -2.23, -1.4, -0.72, 0.0, 0.0, 0.0, 0.0, 0.0, 0.0, 0.0, 0.0, -0.79, -0.83, -0.78, -0.74, 0.0, 0.0, 1.26, 1.26, 1.26, 1.26, 1.26, 1.26, 1.26, 1.26, 1.26, 1.58, 1.86, 1.86, 1.86, 1.86, 1.86, 1.86, 1.86, 1.86, 1.86, 1.86, 1.86, 1.86, 1.26, 1.26, 1.6, 1.2, 1.2, 1.2, 0.95, 0.95, 0.95, 0.6, 0.6, 0.8, 1.26, 1.26, 0.57, 0.71, 0.71, 0.0, 0.0, 0.0, 0.0, 0.0, 0.0, 0.0, -0.61, -1.16, -1.16, -1.16, -1.4, -1.2, -1.9, -1.9, -1.58, -1.86, -1.86, -1.6, -0.57, -0.8, 0.0, 0.89, 2.68, 2.24, 2.24, 2.68, 1.58, 1.58, 1.58, 1.58, 1.4, 0.98, 1.32, 1.17, 0.0, -1.6, -1.54, -1.62, -1.56, -1.4, -1.5, -1.44, -1.4, -1.43, -0.75, -0.7, -0.7, -0.75, 0.0, 0.0, 0.0, 0.0, -0.78, -0.77, -0.8, -1.49, -0.76, 0.0, 1.26, 1.26, 1.26, 1.26, 1.26, 1.26, 1.26, 1.26, 1.26, 1.58, 1.86, 1.58, 1.86, 1.86, 1.86, 1.86, 1.86, 1.86, 1.86, 1.86, 1.86, 1.58, 1.26, 1.26, 1.26, 1.2, 1.2, 1.2, 0.95, 0.95, 0.6, 0.6, 0.6, 1.26, 1.26, 0.8, 0.57, 0.71, 0.0, 0.0, 0.0, 0.0, 0.0, 0.0, 0.0, 0.0, -0.53, -1.2, -1.4, -1.2, -1.61, -1.9, -1.9, -1.9, -1.86, -1.86, -1.86, -1.6, -0.57, -0.57, -0.6, 0.0, 2.68, 2.24, 1.79, 2.68, 2.68, 2.24, 2.24, 1.58, 0.0, 0.0, 0.0, 1.6, 1.64, 0.0, -3.07, -4.1, -2.76, -0.72, 0.0, 0.0, -1.52, -1.52, -0.77, -0.74, -0.72, 0.0, 0.0, 0.0, -0.82, -0.75, -0.79, -0.82, -0.78, -1.47, -1.4, -0.76, 1.26, 1.26, 1.26, 1.26, 1.26, 1.26, 1.26, 1.26, 1.58, 1.58, 1.58, 1.58, 1.58, 1.26, 1.49, 1.49, 1.86, 1.86, 1.86, 1.86, 1.86, 1.26, 1.26, 1.26, 1.26, 1.2, 1.2, 1.2, 0.95, 0.6, 0.6, 0.6, 0.6, 1.26, 1.26, 0.8, 0.57, 0.0, 0.0, 0.0, 0.0, 0.0, 0.0, 0.0, 0.0, 0.0, -0.54, -1.24, -1.24, -1.9, -1.9, -1.9, -1.9, -2.23, -1.86, -1.86, -2.12, -1.26, -1.24, -1.24, -0.6, 0.0, 0.89, 2.68, 2.68, 2.68, 2.24, 2.24, 2.24, 1.58, 0.0, 0.0, 0.0, 1.18, 4.47, 4.04, 0.0, -3.25, -2.47, 0.0, 0.0, 0.0, 0.0, 0.0, 0.0, 0.0, 0.0, 0.0, 0.0, -0.81, -0.78, -1.5, -1.56, -1.56, -1.69, -1.69, -2.11, -1.4, 0.99, 0.99, 0.99, 0.99, 0.99, 1.26, 1.26, 1.58, 1.58, 1.24, 1.24, 1.24, 1.58, 1.26, 1.26, 1.49, 1.49, 1.49, 1.86, 1.86, 1.58, 1.26, 1.26, 1.26, 1.26, 1.6, 1.2, 0.95, 0.95, 0.6, 0.6, 0.6, 0.6, 1.26, 0.8, 0.8, 0.57, 0.0, 0.0, 0.0, 0.0, 0.0, 0.0, 0.0, -0.57, 0.0, -0.71, -0.8, -1.26, -1.58, -1.86, -1.86, -1.86, -1.86, -1.86, -1.86, -2.12, -1.86, -1.58, -1.58, -1.26, 0.0, 2.24, 2.24, 0.0, 0.0, 1.79, 2.68, 2.24, 1.58, 0.0, -0.99, 0.0, 0.0, 3.53, 5.62, 4.66, 0.0, -1.66, 0.0, 0.85, 1.47, 1.49, 0.73, 0.0, 0.0, 0.0, 0.0, 0.0, -0.82, -1.62, -1.62, -2.31, -2.49, -2.31, -2.41, -2.41, -2.41, 0.71, 0.71, 1.24, 1.24, 1.24, 1.24, 1.24, 1.24, 1.24, 1.24, 1.24, 1.24, 1.58, 1.26, 1.26, 1.6, 1.26, 1.26, 1.26, 1.26, 1.26, 1.26, 1.26, 1.26, 1.26, 1.6, 1.2, 0.95, 0.6, 0.6, 0.6, 0.6, 0.6, 0.8, 0.8, 0.57, 0.57, 0.0, 0.0, 0.0, 0.0, 0.0, 0.0, -0.57, -1.24, -0.65, -0.54, -0.57, -0.8, -1.26, -1.26, -1.86, -1.86, -1.86, -1.86, -1.86, -2.17, -2.23, -1.9, -1.9, -1.6, 0.0, 0.0, 0.0, 0.0, 0.0, 0.0, 0.0, 0.0, 0.0, 0.0, -0.99, 0.0, 0.0, 0.0, 1.25, 4.75, 4.71, 1.67, 1.83, 3.11, 2.83, 2.1, 0.7, 0.0, 0.0, -0.8, -0.8, -1.52, -2.25, -2.41, -3.16, -3.16, -3.39, -3.29, -3.29, -3.29, -3.29, 0.71, 0.71, 1.24, 1.24, 1.24, 1.24, 1.24, 1.24, 1.24, 1.24, 1.24, 1.24, 1.86, 1.49, 1.26, 1.6, 1.6, 1.26, 1.26, 1.26, 1.26, 1.26, 1.26, 1.26, 1.26, 1.26, 1.26, 0.6, 0.6, 0.6, 0.6, 0.6, 0.6, 0.8, 0.8, 0.8, 0.57, 0.0, 0.0, 0.0, 0.0, 0.0, 0.0, -0.71, -1.24, -1.2, -0.65, -0.54, -0.71, -0.99, -1.26, -1.26, -1.86, -1.86, -1.86, -2.4, -2.4, -2.4, -2.5, -2.15, -1.7, -0.89, 0.0, 0.0, 0.0, 0.0, 0.0, 0.0, 0.0, 0.0, 0.0, -0.99, -1.08, -0.89, -0.84, 0.0, 2.47, 5.72, 6.35, 6.43, 6.56, 4.94, 2.91, 0.72, -0.72, -2.19, -2.34, -3.19, -3.19, -3.91, -3.91, -3.76, -4.01, -4.68, -4.3, -4.13, -4.13, -4.13, 0.54, 0.54, 1.24, 1.24, 1.24, 1.24, 1.24, 1.24, 1.2, 1.49, 1.24, 1.58, 1.86, 1.86, 1.26, 1.6, 1.6, 1.6, 1.26, 1.26, 1.26, 1.26, 1.26, 1.26, 1.26, 1.26, 1.26, 0.8, 0.6, 0.6, 0.6, 0.8, 0.8, 0.8, 0.8, 0.8, 0.8, 0.0, 0.0, 0.0, 0.0, 0.0, 0.0, -0.71, -0.71, -1.2, -1.2, -1.2, -1.2, -1.24, -1.24, -1.26, -1.86, -1.86, -1.86, -2.4, -2.91, -2.68, -2.68, -2.15, -1.7, -1.34, -0.63, 0.0, 0.0, 0.0, 0.0, 0.0, 0.0, 0.0, 0.0, 0.0, -0.98, -0.96, 0.0, 0.0, 1.62, 4.81, 7.23, 8.72, 10.25, 8.83, 5.81, 2.81, 0.0, -2.17, -3.61, -4.8, -4.68, -4.87, -5.4, -5.3, -5.51, -5.63, -5.0, -4.8, -4.8, -4.8, 0.65, 0.65, 1.2, 1.2, 1.24, 1.2, 1.2, 1.2, 1.2, 1.2, 1.24, 1.58, 1.86, 1.86, 1.26, 1.6, 1.6, 1.6, 1.6, 1.6, 1.26, 1.26, 1.26, 1.26, 1.26, 1.26, 0.8, 0.8, 0.8, 0.8, 0.8, 0.8, 0.8, 0.8, 0.8, 0.8, 0.8, 0.0, 0.0, 0.0, 0.0, 0.0, -0.57, -0.71, -0.71, -1.2, -1.2, -1.2, -1.2, -1.2, -1.24, -1.86, -1.86, -1.86, -1.86, -2.8, -2.68, -3.07, -3.07, -2.5, -2.12, -1.79, -1.2, -0.89, 0.0, 0.0, 0.0, 0.0, 0.0, 0.0, 0.0, 0.0, 0.0, 0.0, 0.0, 1.72, 1.75, 3.25, 5.86, 7.73, 9.7, 10.32, 8.96, 6.51, 3.53, 0.76, -2.12, -4.71, -5.64, -5.69, -5.98, -5.9, -6.0, -6.0, -5.76, -5.76, -5.76, -5.76, 0.65, 0.65, 1.2, 1.2, 1.2, 1.2, 1.2, 1.2, 1.2, 1.2, 1.9, 1.58, 1.86, 1.58, 1.26, 1.26, 1.6, 1.6, 1.6, 1.6, 1.6, 1.26, 1.26, 1.26, 1.26, 1.26, 0.8, 0.8, 0.8, 0.8, 0.8, 0.8, 0.8, 0.8, 0.8, 0.8, 0.8, 0.0, 0.0, 0.0, 0.0, 0.0, -0.57, -0.71, -0.71, -1.2, -1.2, -1.61, -1.61, -1.9, -1.9, -1.9, -2.23, -2.23, -2.4, -2.5, -2.68, -2.79, -2.79, -2.5, -1.86, -1.79, -1.7, -1.34, -0.89, 0.0, 0.0, 0.0, 0.0, 0.0, 0.0, 0.0, 0.0, 0.0, 0.88, 0.88, 1.63, 3.32, 5.06, 6.53, 7.36, 8.18, 9.09, 9.18, 7.16, 3.91, 0.0, -3.48, -5.15, -4.95, -4.42, -5.1, -5.21, -5.64, -5.52, -5.52, -5.52, -5.52, 0.65, 0.65, 0.65, 0.65, 1.2, 1.2, 1.2, 1.2, 1.2, 1.2, 1.49, 1.24, 1.24, 1.58, 1.26, 1.26, 1.2, 1.2, 1.2, 1.2, 1.2, 1.6, 1.26, 1.26, 1.26, 0.8, 0.8, 0.8, 0.8, 0.8, 0.8, 0.8, 0.8, 0.8, 0.8, 0.8, 0.8, 0.0, 0.0, 0.0, 0.0, 0.0, -0.57, -0.71, -0.71, -1.2, -1.2, -1.61, -1.9, -1.9, -1.9, -1.9, -2.15, -2.4, -2.8, -2.5, -2.68, -2.79, -2.79, -2.21, -2.4, -2.12, -1.79, -1.34, -1.34, 0.0, 0.0, 0.0, 0.0, 0.0, 0.0, 0.0, 0.0, 0.0, 0.98, 0.96, 1.72, 3.4, 4.96, 5.76, 6.04, 6.7, 8.72, 10.08, 8.01, 5.43, 1.74, -2.0, -3.2, -3.58, -3.79, -3.91, -3.55, -4.42, -4.71, -4.96, -4.96, -4.96, 0.53, 0.53, 0.53, 0.53, 0.65, 1.2, 1.2, 1.2, 1.2, 1.2, 1.49, 1.24, 1.24, 1.26, 1.26, 1.26, 1.2, 1.2, 1.2, 1.2, 1.2, 1.2, 1.2, 0.6, 0.6, 0.8, 0.8, 0.8, 0.8, 0.8, 0.8, 0.8, 0.8, 0.8, 0.8, 0.8, 0.8, 0.0, 0.0, 0.0, 0.0, 0.0, -0.57, -0.71, -1.24, -1.2, -1.2, -1.61, -1.9, -1.9, -1.9, -1.9, -2.15, -2.5, -2.91, -2.68, -3.07, -2.79, -2.79, -2.53, -2.15, -2.17, -1.79, -1.79, -1.2, -1.79, -1.79, -1.79, -1.34, 0.0, 0.0, 0.0, 0.0, 0.0, 1.13, 0.88, 1.7, 2.8, 4.42, 5.1, 4.96, 5.76, 8.22, 8.99, 7.03, 3.6, -0.0, -0.0, -1.58, -1.79, -2.54, -2.23, -2.68, -2.76, -3.47, -4.16, -4.16, -4.16, 0.53, 0.0, 0.61, 0.53, 0.65, 1.2, 1.2, 1.2, 1.2, 1.2, 1.24, 1.24, 1.24, 1.26, 1.26, 0.6, 0.95, 0.95, 0.95, 0.95, 0.95, 0.95, 0.95, 0.95, 0.6, 0.6, 0.8, 0.8, 0.8, 0.8, 0.8, 0.8, 0.8, 0.8, 0.8, 0.8, 0.6, 0.0, 0.0, 0.0, 0.0, 0.0, -0.57, -0.71, -1.2, -1.2, -1.2, -1.9, -1.9, -1.9, -1.9, -1.9, -2.15, -2.5, -2.68, -3.07, -3.07, -3.14, -3.14, -2.79, -2.5, -2.6, -2.17, -1.79, -1.2, -1.58, -1.79, -2.24, -2.24, -2.24, -1.79, 0.0, 0.0, 0.0, 0.99, 0.98, 2.2, 2.76, 3.47, 4.42, 4.26, 4.42, 5.24, 5.51, 4.76, 0.73, 2.3, 1.98, 1.0, 0.0, -1.34, -1.79, -2.4, -2.23, -2.95, -3.79, -3.79, -3.79, 0.0, 0.0, 0.61, 0.61, 1.2, 1.2, 1.2, 1.2, 1.2, 1.2, 1.0, 1.24, 1.24, 0.8, 0.8, 0.6, 0.95, 0.95, 0.95, 0.95, 0.95, 0.95, 0.95, 0.95, 0.6, 0.6, 0.8, 0.8, 0.8, 0.8, 0.8, 0.8, 0.8, 0.8, 0.8, 0.6, 0.0, 0.0, 0.0, 0.0, 0.0, -0.57, -0.71, -1.24, -1.49, -1.2, -1.49, -1.9, -1.9, -1.9, -1.9, -2.15, -2.15, -2.5, -2.5, -3.07, -2.79, -3.14, -3.14, -2.79, -2.5, -2.4, -2.17, -2.24, -1.2, -0.63, -2.4, -2.24, -2.24, -2.24, -2.24, -1.58, -1.26, 0.0, 1.2, 0.99, 2.23, 2.0, 1.99, 2.8, 3.33, 3.72, 2.8, 2.47, 0.0, 1.2, 3.79, 4.15, 3.13, 2.24, 1.79, 0.0, -2.24, -2.97, -3.35, -4.0, -4.0, -4.0, 0.0, 0.0, 0.61, 1.16, 1.16, 1.2, 1.2, 1.2, 1.2, 1.2, 1.0, 0.71, 0.71, 0.8, 0.8, 0.6, 0.95, 0.63, 0.63, 0.95, 0.95, 0.95, 0.95, 0.95, 0.6, 0.6, 0.6, 0.8, 0.8, 0.8, 0.8, 0.8, 0.8, 0.8, 0.6, 0.6, 0.0, 0.0, 0.0, 0.0, 0.0, -0.57, -0.71, -1.24, -1.24, -1.24, -1.49, -1.9, -1.9, -1.9, -2.23, -2.4, -2.4, -2.5, -2.5, -3.07, -2.79, -3.14, -3.14, -2.79, -2.68, -2.6, -2.6, -2.24, -1.79, -1.2, -2.21, -1.2, 0.0, 0.0, -1.0, -1.58, 0.0, 0.0, 0.0, 0.0, 1.13, 1.08, 0.96, 0.88, 1.72, 1.72, 1.72, 0.0, 0.0, 2.68, 4.84, 4.4, 3.47, 2.97, 2.97, 1.58, 0.0, -2.24, -3.13, -3.13, -3.13, -3.13, 0.51, 0.51, 0.61, 1.16, 1.16, 1.88, 1.4, 1.2, 1.2, 1.2, 1.2, 0.71, 0.71, 0.8, 0.6, 0.95, 0.63, 0.63, 0.63, 0.63, 0.63, 0.63, 0.95, 0.95, 0.6, 0.6, 0.6, 0.6, 0.8, 0.8, 0.8, 0.8, 0.6, 0.6, 0.6, 0.0, 0.0, 0.0, 0.0, 0.0, -0.57, -0.71, -1.24, -1.24, -1.24, -1.24, -1.49, -1.9, -1.9, -1.9, -2.23, -2.4, -2.5, -2.5, -2.68, -3.07, -3.14, -3.14, -3.35, -3.07, -2.91, -2.63, -2.6, -2.24, -1.79, -1.2, -0.99, 0.0, 0.0, 0.0, 0.0, 0.0, 0.0, 0.0, 0.0, 0.0, 0.0, 0.0, 0.0, 0.0, 0.96, 0.89, 0.0, 0.78, 0.73, 2.68, 4.46, 4.46, 3.84, 3.16, 2.41, 1.9, 1.26, 0.0, -2.24, -2.4, -2.4, -2.4, 0.59, 0.59, 1.13, 1.16, 1.61, 1.88, 1.4, 1.2, 1.2, 1.2, 0.65, 0.71, 0.57, 0.8, 0.6, 0.95, 0.63, 0.63, 0.63, 0.63, 0.63, 0.63, 0.63, 0.95, 0.95, 0.6, 0.6, 0.6, 0.6, 0.6, 0.6, 0.6, 0.6, 0.6, 0.6, 0.0, 0.0, 0.0, 0.0, -0.57, -0.71, -0.71, -1.24, -1.24, -1.24, -1.24, -1.24, -1.9, -1.9, -1.9, -2.23, -2.4, -2.5, -2.5, -3.07, -2.79, -3.14, -3.35, -3.14, -3.07, -2.91, -2.63, -2.63, -2.68, -2.24, -1.7, -1.26, 0.0, 0.0, 0.0, 0.0, 0.0, 0.0, 0.0, 0.0, -1.58, 0.0, 0.0, 0.0, 0.0, 0.0, 0.89, 0.81, 3.07, 2.49, 2.24, 3.47, 4.43, 3.72, 3.22, 1.66, 0.99, 1.2, -0.0, -1.2, -2.21, -2.21, -2.21, 0.59, 0.59, 1.13, 1.16, 1.16, 1.16, 1.16, 1.2, 1.2, 0.65, 0.54, 0.71, 0.57, 0.8, 0.6, 0.95, 0.0, 0.0, 0.0, 0.0, 0.0, 0.63, 0.63, 0.0, 0.0, 0.95, 0.95, 0.6, 0.6, 0.6, 0.6, 0.6, 0.6, 0.6, 0.0, 0.0, 0.0, 0.0, 0.0, -0.57, -0.71, -0.71, -1.24, -1.24, -1.24, -1.24, -1.58, -1.58, -1.9, -1.9, -2.23, -2.4, -2.5, -2.68, -3.07, -2.79, -3.14, -3.35, -3.07, -2.68, -2.91, -3.07, -2.63, -2.63, -2.6, -2.17, -1.86, -0.99, -0.57, 0.0, 0.0, 0.0, 0.0, 0.0, 0.0, -1.58, -1.4, -0.98, 0.0, 0.0, 0.0, 0.0, 0.0, 2.44, 2.34, 0.0, 1.6, 3.11, 3.11, 2.29, 0.81, 0.73, 0.87, -0.0, -0.99, -2.53, -2.53, -2.53, 0.59, 0.59, 1.13, 1.33, 1.16, 1.16, 1.16, 1.2, 0.65, 0.65, 0.54, 0.71, 0.57, 0.8, 0.6, 0.95, 0.0, 0.0, 0.0, 0.0, 0.0, 0.0, 0.0, 0.0, 0.0, 0.95, 0.95, 0.95, 0.95, 0.6, 0.6, 0.6, 0.6, 0.0, 0.0, 0.0, 0.0, 0.0, -0.8, -0.57, -0.71, -0.71, -1.24, -1.58, -1.58, -1.58, -1.58, -1.58, -1.9, -1.9, -2.23, -2.5, -2.5, -3.07, -3.07, -2.79, -3.14, -3.14, -3.07, -2.91, -2.91, -3.07, -3.07, -2.63, -2.63, -2.6, -2.4, -1.86, -1.58, -1.4, -1.2, 0.0, 0.0, 0.0, -1.58, -1.58, -1.2, -1.13, -0.88, 0.0, 0.0, 0.0, 0.0, 0.0, 0.77, -0.88, -0.0, 2.47, 3.11, 2.6, 1.47, 0.76, 0.73, -0.0, -1.13, -1.98, -1.98, -1.98, 0.59, 0.59, 1.13, 1.13, 1.16, 1.16, 1.0, 0.65, 0.65, 0.65, 0.54, 0.71, 0.57, 0.6, 0.6, 0.0, 0.0, 0.0, 0.0, 0.0, 0.0, 0.0, 0.0, 0.0, 0.0, 0.63, 0.95, 0.95, 0.95, 0.95, 0.95, 0.0, 0.0, 0.0, 0.0, 0.0, 0.0, -0.8, -0.8, -0.57, -0.57, -1.26, -1.26, -1.58, -1.58, -1.58, -1.86, -1.86, -1.9, -1.9, -1.9, -2.5, -2.68, -3.07, -3.07, -2.79, -2.79, -3.07, -2.68, -2.91, -2.91, -3.07, -3.07, -3.07, -3.07, -3.07, -2.91, -2.8, -2.5, -1.98, -1.2, 0.0, 0.0, 0.0, 0.0, -1.58, -1.2, -1.4, -0.98, 0.0, 0.0, 0.0, -0.84, -1.75, -0.8, -0.82, -2.97, -0.0, 2.29, 2.29, 1.6, 0.72, -0.0, -0.0, -0.98, -2.23, -2.23, -2.23, 0.59, 0.59, 0.59, 0.59, 0.61, 0.61, 0.53, 0.65, 0.65, 0.54, 0.71, 0.57, 0.8, 0.6, 0.0, 0.0, 0.0, 0.0, 0.0, 0.0, 0.0, 0.0, 0.0, 0.0, 0.0, 0.63, 0.63, 0.95, 0.95, 0.95, 0.0, 0.0, 0.0, 0.0, 0.0, 0.0, -0.6, -0.8, -0.8, -0.8, -1.26, -1.26, -1.26, -1.58, -1.58, -1.86, -1.86, -1.86, -2.23, -1.9, -2.15, -2.5, -3.07, -3.07, -3.07, -2.79, -3.07, -2.68, -2.8, -2.91, -2.91, -3.07, -3.07, -3.07, -3.07, -2.91, -3.32, -3.32, -3.07, -2.21, -1.2, 0.0, 0.0, 0.0, 0.0, 0.0, -1.58, -1.58, -1.4, 0.0, -0.96, -0.89, -1.65, -2.35, -2.41, -1.54, -2.54, -2.24, -0.0, 0.81, 1.47, 0.82, -0.0, -0.0, -0.88, -1.8, -1.8, -1.8, 0.59, 0.59, 0.59, 0.51, 0.61, 0.53, 0.65, 0.65, 0.54, 0.54, 0.57, 0.57, 0.8, 0.0, 0.0, 0.0, 0.0, 0.0, 0.0, 0.0, 0.0, 0.0, 0.0, 0.0, 0.0, 0.0, 0.63, 0.63, 0.0, 0.0, 0.0, 0.0, 0.0, 0.0, 0.0, 0.0, -0.8, -0.8, -0.8, -0.8, -1.26, -1.26, -1.26, -1.58, -1.58, -1.86, -1.86, -1.86, -2.23, -2.23, -2.15, -2.68, -3.07, -3.07, -3.07, -3.07, -2.5, -2.5, -2.8, -2.91, -2.91, -3.07, -3.07, -3.09, -3.53, -3.39, -3.39, -3.39, -3.2, -2.79, -1.61, 0.0, 1.2, 2.21, 0.0, 0.0, 0.0, -1.58, -1.2, -1.98, -0.88, -1.72, -1.65, -1.68, -2.31, -1.58, -0.76, -1.67, -1.6, -1.0, -0.0, -0.0, -0.0, -0.81, -0.88, -1.6, -1.6, -1.6, 0.59, 0.59, 0.59, 0.61, 0.61, 0.53, 0.65, 0.0, 0.0, 0.0, 0.0, 0.0, 0.0, 0.0, 0.0, 0.0, 0.0, 0.0, 0.0, 0.0, 0.0, 0.0, 0.0, 0.0, 0.0, 0.0, 0.0, 0.0, 0.0, 0.0, 0.0, 0.0, 0.0, 0.0, 0.0, -0.6, -0.6, -0.8, -0.8, -1.26, -1.26, -1.26, -1.26, -1.58, -1.58, -1.86, -1.86, -1.86, -2.23, -2.4, -2.5, -2.68, -3.07, -3.07, -2.68, -2.5, -2.15, -2.5, -2.91, -2.91, -2.91, -3.07, -3.09, -3.53, -3.39, -3.39, -3.39, -3.39, -3.6, -3.35, -2.53, -0.54, 0.0, 0.0, 0.0, 0.0, -1.58, -1.58, -2.4, -1.98, -1.83, -1.72, -1.65, -1.6, -1.62, -0.82, 0.0, 0.0, -0.85, -1.72, -2.4, -2.53, -1.8, -1.8, -1.98, -2.21, -2.21, -2.21, 0.59, 0.59, 0.59, 0.61, 0.61, 0.53, 0.65, 0.0, 0.0, 0.0, 0.0, 0.0, 0.0, 0.0, 0.0, 0.0, 0.0, 0.0, 0.0, 0.0, 0.0, 0.0, 0.0, 0.0, 0.0, 0.0, 0.0, 0.0, 0.0, 0.0, 0.0, 0.0, 0.0, 0.0, 0.0, -0.6, -0.6, -0.8, -0.8, -1.26, -1.26, -1.26, -1.26, -1.58, -1.58, -1.86, -1.86, -1.86, -2.23, -2.4, -2.5, -2.68, -3.07, -3.07, -2.68, -2.5, -2.15, -2.5, -2.91, -2.91, -2.91, -3.07, -3.09, -3.53, -3.39, -3.39, -3.39, -3.39, -3.6, -3.35, -2.53, -0.54, 0.0, 0.0, 0.0, 0.0, -1.58, -1.58, -2.4, -1.98, -1.83, -1.72, -1.84, -0.85, -0.85, 0.0, 0.0, 0.0, 0.0, 0.0, 0.0, -0.96, -2.23, -2.98, -3.39, -2.98, -2.98, -2.98]}]